DZH2021 DAAG-PHOG

Flight info

Callsign DZH2021
Flight time 15h 36m
Altitude 30000
Route SADAF1C IZA N856 EBROX DCT ANETO DCT VAVIX/N0483F320 DCT GALOF DCT TERKU DCT DOLUR DCT LEDGO DCT UNBEG DCT ADBUS DCT ETARI/M082F320 DCT 59N021W 62N030W/M084F340 65N040W 66N052W/N0473F340 67N066W 67N079W 65N092W/N0469F360 63N103W DCT YSM J528 YQU DCT 51N125W/N0464F380 47N131W 43N136W 39N141W DCT ZINNO A331 ZEMOM/N0466F400 DCT BOARD R464 BITTA LNDHY1
Aircraft B772/H-SDE2E3FGHIJ5LORVWXY/LB1D1

Departure

Time 2026-04-24 23:48
Airport Houari Boumediene Airport (DAAG)

Arrival

Time 2026-04-25 15:25
Airport Kahului International Airport (PHOG)
Time Latitude Longitude Altitude Speed Heading
2026-04-24 22:46 36.69836 3.20074 74 ft 0 kts 38°
2026-04-24 23:31 36.69835 3.20073 74 ft 2 kts 38°
2026-04-24 23:31 36.69815 3.20054 63 ft 4 kts 38°
2026-04-24 23:31 36.69794 3.20033 63 ft 4 kts 40°
2026-04-24 23:31 36.69773 3.20011 63 ft 4 kts 46°
2026-04-24 23:32 36.69762 3.19998 74 ft 4 kts 32°
2026-04-24 23:32 36.69738 3.19984 64 ft 4 kts 17°
2026-04-24 23:32 36.69718 3.19975 74 ft 1 kts 24°
2026-04-24 23:32 36.69714 3.19973 74 ft 0 kts 24°
2026-04-24 23:35 36.69736 3.19971 68 ft 5 kts 336°
2026-04-24 23:35 36.69742 3.19938 70 ft 5 kts 247°
2026-04-24 23:36 36.69701 3.19912 65 ft 9 kts 193°
2026-04-24 23:36 36.69637 3.19906 74 ft 7 kts 182°
2026-04-24 23:36 36.69600 3.19904 70 ft 7 kts 181°
2026-04-24 23:36 36.69541 3.19902 67 ft 10 kts 181°
2026-04-24 23:37 36.69469 3.19900 67 ft 11 kts 181°
2026-04-24 23:37 36.69389 3.19897 74 ft 11 kts 181°
2026-04-24 23:37 36.69312 3.19821 67 ft 7 kts 263°
2026-04-24 23:38 36.69311 3.19746 75 ft 10 kts 270°
2026-04-24 23:38 36.69312 3.19651 75 ft 12 kts 272°
2026-04-24 23:38 36.69315 3.19568 66 ft 9 kts 272°
2026-04-24 23:38 36.69318 3.19478 71 ft 10 kts 272°
2026-04-24 23:39 36.69320 3.19405 65 ft 9 kts 272°
2026-04-24 23:39 36.69321 3.19332 67 ft 10 kts 271°
2026-04-24 23:39 36.69323 3.19236 68 ft 12 kts 271°
2026-04-24 23:39 36.69326 3.19118 72 ft 15 kts 271°
2026-04-24 23:40 36.69329 3.18980 75 ft 17 kts 271°
2026-04-24 23:40 36.69332 3.18838 68 ft 17 kts 271°
2026-04-24 23:40 36.69334 3.18726 68 ft 12 kts 271°
2026-04-24 23:40 36.69337 3.18630 75 ft 10 kts 272°
2026-04-24 23:41 36.69338 3.18534 75 ft 12 kts 270°
2026-04-24 23:41 36.69342 3.18417 75 ft 14 kts 273°
2026-04-24 23:41 36.69345 3.18287 75 ft 15 kts 272°
2026-04-24 23:41 36.69348 3.18173 67 ft 13 kts 271°
2026-04-24 23:42 36.69350 3.18064 70 ft 11 kts 271°
2026-04-24 23:42 36.69353 3.17965 75 ft 12 kts 272°
2026-04-24 23:42 36.69356 3.17854 70 ft 13 kts 271°
2026-04-24 23:42 36.69358 3.17741 69 ft 13 kts 271°
2026-04-24 23:43 36.69361 3.17625 68 ft 14 kts 272°
2026-04-24 23:43 36.69365 3.17500 68 ft 15 kts 272°
2026-04-24 23:43 36.69368 3.17373 75 ft 15 kts 271°
2026-04-24 23:43 36.69371 3.17248 76 ft 15 kts 271°
2026-04-24 23:44 36.69350 3.17116 66 ft 17 kts 221°
2026-04-24 23:44 36.69313 3.17102 70 ft 0 kts 184°
2026-04-24 23:46 36.69303 3.17102 84 ft 4 kts 184°
2026-04-24 23:46 36.69267 3.17098 84 ft 5 kts 184°
2026-04-24 23:46 36.69243 3.17096 87 ft 5 kts 184°
2026-04-24 23:47 36.69211 3.17101 89 ft 4 kts 153°
2026-04-24 23:47 36.69204 3.17141 88 ft 9 kts 92°
2026-04-24 23:47 36.69200 3.17281 84 ft 27 kts 91°
2026-04-24 23:47 36.69187 3.17776 79 ft 93 kts 91°
2026-04-24 23:48 36.69163 3.18849 83 ft 156 kts 91°
2026-04-24 23:48 36.69117 3.20434 120 ft 205 kts 92°
2026-04-24 23:48 36.69092 3.22219 698 ft 207 kts 91°
2026-04-24 23:48 36.69071 3.23951 1734 ft 193 kts 91°
2026-04-24 23:49 36.69052 3.25659 2443 ft 203 kts 91°
2026-04-24 23:49 36.69040 3.27444 3073 ft 208 kts 91°
2026-04-24 23:49 36.69070 3.29268 3680 ft 216 kts 89°
2026-04-24 23:49 36.69443 3.31100 4073 ft 232 kts 56°
2026-04-24 23:50 36.70737 3.32454 4042 ft 266 kts 19°
2026-04-24 23:50 36.72591 3.32751 4495 ft 278 kts 351°
2026-04-24 23:50 36.74351 3.31880 5364 ft 268 kts 321°
2026-04-24 23:50 36.75720 3.30311 6157 ft 270 kts 312°
2026-04-24 23:51 36.76993 3.28545 6746 ft 278 kts 310°
2026-04-24 23:51 36.78292 3.26724 7347 ft 283 kts 314°
2026-04-24 23:51 36.79708 3.24951 7874 ft 293 kts 316°
2026-04-24 23:51 36.81188 3.23184 8517 ft 297 kts 316°
2026-04-24 23:52 36.82700 3.21400 8953 ft 308 kts 317°
2026-04-24 23:52 36.84258 3.19549 9531 ft 311 kts 316°
2026-04-24 23:52 36.85815 3.17663 10155 ft 309 kts 317°
2026-04-24 23:52 36.87372 3.15865 10862 ft 304 kts 318°
2026-04-24 23:53 36.88955 3.14085 11329 ft 308 kts 319°
2026-04-24 23:53 36.90570 3.12288 11755 ft 313 kts 319°
2026-04-24 23:53 36.92202 3.10465 12219 ft 316 kts 319°
2026-04-24 23:53 36.93842 3.08620 12709 ft 318 kts 319°
2026-04-24 23:54 36.95464 3.06782 13177 ft 320 kts 318°
2026-04-24 23:54 36.97133 3.04883 13501 ft 328 kts 318°
2026-04-24 23:54 36.98800 3.02979 14137 ft 319 kts 317°
2026-04-24 23:54 37.00438 3.01106 14560 ft 324 kts 317°
2026-04-24 23:55 37.02071 2.99236 14784 ft 331 kts 317°
2026-04-24 23:55 37.03787 2.97270 15029 ft 338 kts 317°
2026-04-24 23:55 37.05514 2.95223 15301 ft 345 kts 316°
2026-04-24 23:55 37.07281 2.93143 15571 ft 352 kts 316°
2026-04-24 23:56 37.09089 2.91092 15844 ft 359 kts 317°
2026-04-24 23:56 37.10972 2.88994 16131 ft 366 kts 318°
2026-04-24 23:56 37.12982 2.87000 16409 ft 372 kts 326°
2026-04-24 23:56 37.15178 2.85239 16717 ft 378 kts 327°
2026-04-24 23:57 37.17435 2.83500 17043 ft 382 kts 327°
2026-04-24 23:57 37.19721 2.81741 17373 ft 387 kts 327°
2026-04-24 23:57 37.22024 2.79950 17705 ft 391 kts 327°
2026-04-24 23:57 37.24338 2.78131 18091 ft 393 kts 327°
2026-04-24 23:58 37.26617 2.76323 18493 ft 394 kts 327°
2026-04-24 23:58 37.28935 2.74475 18771 ft 397 kts 326°
2026-04-24 23:58 37.31270 2.72605 19097 ft 399 kts 326°
2026-04-24 23:58 37.33615 2.70723 19345 ft 402 kts 326°
2026-04-24 23:59 37.35982 2.68821 19613 ft 404 kts 326°
2026-04-24 23:59 37.38350 2.66916 19897 ft 406 kts 326°
2026-04-24 23:59 37.40726 2.65006 20221 ft 406 kts 326°
2026-04-24 23:59 37.43080 2.63109 20517 ft 407 kts 326°
2026-04-25 00:00 37.45462 2.61189 20845 ft 407 kts 327°
2026-04-25 00:00 37.47852 2.59260 21101 ft 409 kts 327°
2026-04-25 00:00 37.50249 2.57326 21417 ft 408 kts 327°
2026-04-25 00:00 37.52641 2.55394 21729 ft 408 kts 327°
2026-04-25 00:01 37.55026 2.53465 22055 ft 407 kts 327°
2026-04-25 00:01 37.57410 2.51537 22325 ft 407 kts 327°
2026-04-25 00:01 37.59792 2.49608 22622 ft 407 kts 326°
2026-04-25 00:01 37.62147 2.47699 22893 ft 407 kts 326°
2026-04-25 00:02 37.64525 2.45771 23168 ft 406 kts 326°
2026-04-25 00:02 37.66900 2.43844 23454 ft 405 kts 326°
2026-04-25 00:02 37.69265 2.41922 23734 ft 404 kts 327°
2026-04-25 00:02 37.71622 2.40004 23990 ft 402 kts 327°
2026-04-25 00:03 37.73967 2.38099 24253 ft 400 kts 327°
2026-04-25 00:03 37.76301 2.36200 24507 ft 398 kts 327°
2026-04-25 00:03 37.78617 2.34314 24771 ft 395 kts 327°
2026-04-25 00:03 37.80888 2.32466 25030 ft 392 kts 327°
2026-04-25 00:04 37.83201 2.30661 25279 ft 389 kts 328°
2026-04-25 00:04 37.85517 2.28905 25524 ft 387 kts 329°
2026-04-25 00:04 37.87820 2.27174 25775 ft 383 kts 328°
2026-04-25 00:04 37.90098 2.25459 26036 ft 379 kts 328°
2026-04-25 00:05 37.92351 2.23759 26285 ft 375 kts 328°
2026-04-25 00:05 37.94567 2.22078 26558 ft 369 kts 328°
2026-04-25 00:05 37.96725 2.20438 26810 ft 363 kts 328°
2026-04-25 00:05 37.98869 2.18804 27061 ft 357 kts 328°
2026-04-25 00:06 38.00966 2.17205 27297 ft 349 kts 328°
2026-04-25 00:06 38.03023 2.15634 27527 ft 341 kts 327°
2026-04-25 00:06 38.05025 2.14104 27733 ft 331 kts 327°
2026-04-25 00:06 38.06982 2.12608 27806 ft 326 kts 327°
2026-04-25 00:07 38.08927 2.11118 27659 ft 328 kts 328°
2026-04-25 00:07 38.10897 2.09606 27398 ft 334 kts 328°
2026-04-25 00:07 38.12875 2.08089 27196 ft 339 kts 327°
2026-04-25 00:07 38.14892 2.06540 27133 ft 338 kts 328°
2026-04-25 00:08 38.16896 2.05003 27183 ft 334 kts 327°
2026-04-25 00:08 38.18868 2.03487 27221 ft 329 kts 328°
2026-04-25 00:08 38.20821 2.01987 27259 ft 326 kts 327°
2026-04-25 00:08 38.22761 2.00494 27180 ft 327 kts 328°
2026-04-25 00:09 38.24667 1.99027 27079 ft 328 kts 327°
2026-04-25 00:09 38.26629 1.97517 26918 ft 332 kts 328°
2026-04-25 00:09 38.28654 1.95957 26340 ft 352 kts 328°
2026-04-25 00:09 38.30820 1.94280 25402 ft 386 kts 328°
2026-04-25 00:10 38.33161 1.92472 25249 ft 398 kts 328°
2026-04-25 00:10 38.35522 1.90650 25639 ft 394 kts 328°
2026-04-25 00:10 38.37872 1.88835 25843 ft 397 kts 328°
2026-04-25 00:10 38.40239 1.87006 26029 ft 399 kts 328°
2026-04-25 00:11 38.42621 1.85163 26207 ft 402 kts 328°
2026-04-25 00:11 38.45017 1.83307 26407 ft 404 kts 328°
2026-04-25 00:11 38.47392 1.81466 26632 ft 406 kts 328°
2026-04-25 00:11 38.49810 1.79590 26813 ft 409 kts 328°
2026-04-25 00:12 38.52262 1.77685 26837 ft 416 kts 328°
2026-04-25 00:12 38.54732 1.75766 27183 ft 413 kts 328°
2026-04-25 00:12 38.57176 1.73865 27663 ft 408 kts 328°
2026-04-25 00:12 38.59590 1.71987 28042 ft 406 kts 328°
2026-04-25 00:13 38.62005 1.70105 28287 ft 407 kts 327°
2026-04-25 00:13 38.64427 1.68216 28507 ft 408 kts 327°
2026-04-25 00:13 38.66812 1.66355 28813 ft 407 kts 327°
2026-04-25 00:13 38.69231 1.64466 29048 ft 408 kts 327°
2026-04-25 00:14 38.71662 1.62565 29228 ft 411 kts 327°
2026-04-25 00:14 38.74104 1.60655 29457 ft 412 kts 327°
2026-04-25 00:14 38.76556 1.58735 29704 ft 413 kts 327°
2026-04-25 00:14 38.79010 1.56812 29909 ft 415 kts 327°
2026-04-25 00:15 38.81481 1.54874 30059 ft 419 kts 327°
2026-04-25 00:15 38.83981 1.52912 30125 ft 422 kts 327°
2026-04-25 00:15 38.88987 1.48979 30137 ft 429 kts 327°
2026-04-25 00:16 38.91618 1.47162 30125 ft 431 kts 340°
2026-04-25 00:16 38.94532 1.46255 30144 ft 434 kts 355°
2026-04-25 00:16 39.00580 1.45873 30140 ft 439 kts 355°
2026-04-25 00:17 39.06711 1.45069 30132 ft 447 kts 354°
2026-04-25 00:17 39.12914 1.44239 30127 ft 455 kts 354°
2026-04-25 00:18 39.19278 1.43432 30121 ft 464 kts 354°
2026-04-25 00:18 39.25756 1.42607 30116 ft 472 kts 354°
2026-04-25 00:19 39.32345 1.41754 30177 ft 481 kts 354°
2026-04-25 00:19 39.39057 1.40886 30309 ft 488 kts 354°
2026-04-25 00:20 39.42395 1.40444 30414 ft 490 kts 354°
2026-04-25 00:20 39.45798 1.39987 30522 ft 492 kts 354°
2026-04-25 00:20 39.49204 1.39524 30647 ft 493 kts 354°
2026-04-25 00:20 39.52612 1.39058 30838 ft 493 kts 354°
2026-04-25 00:21 39.56025 1.38592 31078 ft 491 kts 354°
2026-04-25 00:21 39.59415 1.38134 31389 ft 488 kts 354°
2026-04-25 00:21 39.62777 1.37683 31748 ft 484 kts 353°
2026-04-25 00:21 39.66072 1.37237 31970 ft 483 kts 353°
2026-04-25 00:22 39.72778 1.36345 32103 ft 486 kts 353°
2026-04-25 00:22 39.79506 1.35466 32113 ft 485 kts 353°
2026-04-25 00:23 39.86210 1.34584 32120 ft 483 kts 353°
2026-04-25 00:23 39.92846 1.33706 32119 ft 482 kts 353°
2026-04-25 00:24 39.99515 1.32820 32123 ft 481 kts 353°
2026-04-25 00:24 40.06157 1.31934 32124 ft 480 kts 353°
2026-04-25 00:25 40.12820 1.31044 32123 ft 483 kts 353°
2026-04-25 00:25 40.19549 1.30144 32128 ft 489 kts 353°
2026-04-25 00:26 40.26292 1.29239 32140 ft 493 kts 353°
2026-04-25 00:26 40.33139 1.28320 32124 ft 496 kts 353°
2026-04-25 00:27 40.40030 1.27393 32122 ft 499 kts 353°
2026-04-25 00:27 40.46905 1.26463 32129 ft 501 kts 353°
2026-04-25 00:28 40.53847 1.25523 32123 ft 502 kts 353°
2026-04-25 00:28 40.60807 1.24577 32116 ft 503 kts 353°
2026-04-25 00:29 40.67769 1.23629 32129 ft 503 kts 353°
2026-04-25 00:29 40.74653 1.22118 32127 ft 501 kts 345°
2026-04-25 00:30 40.81360 1.19863 32131 ft 500 kts 344°
2026-04-25 00:30 40.88099 1.17557 32127 ft 500 kts 345°
2026-04-25 00:31 40.94833 1.15294 32126 ft 499 kts 345°
2026-04-25 00:31 41.01557 1.13060 32123 ft 500 kts 345°
2026-04-25 00:32 41.08259 1.10837 32128 ft 500 kts 345°
2026-04-25 00:32 41.15018 1.08586 32135 ft 501 kts 345°
2026-04-25 00:33 41.21786 1.06325 32138 ft 502 kts 345°
2026-04-25 00:33 41.28567 1.04055 32130 ft 503 kts 345°
2026-04-25 00:34 41.35361 1.01775 32139 ft 503 kts 345°
2026-04-25 00:34 41.42033 0.99532 32135 ft 504 kts 345°
2026-04-25 00:35 41.48828 0.97243 32141 ft 504 kts 345°
2026-04-25 00:35 41.55619 0.94961 32137 ft 503 kts 345°
2026-04-25 00:36 41.62405 0.92670 32128 ft 502 kts 345°
2026-04-25 00:36 41.69129 0.90388 32124 ft 502 kts 345°
2026-04-25 00:37 41.75891 0.88087 32136 ft 501 kts 345°
2026-04-25 00:37 41.82645 0.85787 32135 ft 500 kts 345°
2026-04-25 00:38 41.89390 0.83485 32136 ft 500 kts 345°
2026-04-25 00:38 41.96082 0.81199 32134 ft 499 kts 345°
2026-04-25 00:39 42.02818 0.78891 32272 ft 499 kts 345°
2026-04-25 00:39 42.06181 0.77735 32411 ft 498 kts 345°
2026-04-25 00:39 42.09539 0.76579 32525 ft 498 kts 345°
2026-04-25 00:40 42.16269 0.74262 32599 ft 501 kts 345°
2026-04-25 00:40 42.22977 0.71947 32801 ft 500 kts 345°
2026-04-25 00:41 42.26343 0.70783 32914 ft 500 kts 345°
2026-04-25 00:41 42.29715 0.69615 33011 ft 500 kts 345°
2026-04-25 00:41 42.36452 0.67280 33204 ft 500 kts 345°
2026-04-25 00:42 42.39822 0.66108 33308 ft 500 kts 345°
2026-04-25 00:42 42.43189 0.64937 33389 ft 500 kts 344°
2026-04-25 00:42 42.49871 0.62608 33564 ft 499 kts 344°
2026-04-25 00:43 42.53240 0.61432 33667 ft 499 kts 344°
2026-04-25 00:43 42.56599 0.60257 33748 ft 499 kts 344°
2026-04-25 00:43 42.63327 0.57901 33950 ft 498 kts 344°
2026-04-25 00:44 42.66666 0.56682 34058 ft 496 kts 341°
2026-04-25 00:44 42.69911 0.55100 34110 ft 495 kts 336°
2026-04-25 00:44 42.75977 0.50864 34165 ft 494 kts 329°
2026-04-25 00:45 42.81935 0.46198 34161 ft 495 kts 329°
2026-04-25 00:45 42.87922 0.41516 34181 ft 496 kts 329°
2026-04-25 00:46 42.93930 0.36858 34170 ft 498 kts 329°
2026-04-25 00:47 43.02919 0.29897 34183 ft 497 kts 328°
2026-04-25 00:47 43.08926 0.25234 34174 ft 496 kts 328°
2026-04-25 00:48 43.14920 0.20567 34177 ft 495 kts 328°
2026-04-25 00:48 43.20903 0.15899 34168 ft 494 kts 328°
2026-04-25 00:49 43.26823 0.11269 34177 ft 492 kts 328°
2026-04-25 00:49 43.32766 0.06607 34175 ft 491 kts 328°
2026-04-25 00:50 43.38689 0.01950 34165 ft 490 kts 328°
2026-04-25 00:50 43.44535 -0.02656 34183 ft 489 kts 327°
2026-04-25 00:51 43.50442 -0.07319 34166 ft 489 kts 327°
2026-04-25 00:51 43.56300 -0.11954 34163 ft 489 kts 327°
2026-04-25 00:52 43.62199 -0.16632 34168 ft 489 kts 327°
2026-04-25 00:52 43.68093 -0.21313 34155 ft 489 kts 327°
2026-04-25 00:53 43.73998 -0.26015 34166 ft 490 kts 327°
2026-04-25 00:53 43.79863 -0.30702 34151 ft 491 kts 327°
2026-04-25 00:54 43.85779 -0.35439 34145 ft 491 kts 327°
2026-04-25 00:54 43.91697 -0.40187 34163 ft 492 kts 327°
2026-04-25 00:55 43.97625 -0.44966 34169 ft 493 kts 327°
2026-04-25 00:55 44.03502 -0.49703 34169 ft 493 kts 327°
2026-04-25 00:56 44.09438 -0.54495 34147 ft 493 kts 327°
2026-04-25 00:56 44.15363 -0.59291 34141 ft 493 kts 327°
2026-04-25 00:57 44.21285 -0.64097 34140 ft 492 kts 327°
2026-04-25 00:57 44.27169 -0.68849 34134 ft 492 kts 329°
2026-04-25 00:58 44.33434 -0.72753 34158 ft 493 kts 336°
2026-04-25 00:58 44.39817 -0.76287 34130 ft 493 kts 336°
2026-04-25 00:59 44.46197 -0.79844 34136 ft 494 kts 336°
2026-04-25 00:59 44.52571 -0.83459 34135 ft 494 kts 335°
2026-04-25 01:00 44.58898 -0.87076 34131 ft 495 kts 335°
2026-04-25 01:00 44.65273 -0.90733 34128 ft 495 kts 336°
2026-04-25 01:01 44.71656 -0.94398 34149 ft 496 kts 336°
2026-04-25 01:01 44.78053 -0.98079 34140 ft 497 kts 336°
2026-04-25 01:02 44.84313 -1.01690 34131 ft 497 kts 336°
2026-04-25 01:02 44.90727 -1.05398 34126 ft 498 kts 336°
2026-04-25 01:03 44.97138 -1.09113 34129 ft 498 kts 336°
2026-04-25 01:03 45.03544 -1.12836 34123 ft 498 kts 336°
2026-04-25 01:04 45.09956 -1.16570 34130 ft 499 kts 336°
2026-04-25 01:04 45.16332 -1.20292 34124 ft 499 kts 336°
2026-04-25 01:05 45.22752 -1.24050 34117 ft 500 kts 336°
2026-04-25 01:05 45.29179 -1.27821 34122 ft 500 kts 336°
2026-04-25 01:06 45.35604 -1.31599 34114 ft 500 kts 336°
2026-04-25 01:06 45.41993 -1.35366 34114 ft 500 kts 336°
2026-04-25 01:07 45.48426 -1.39168 34110 ft 501 kts 336°
2026-04-25 01:07 45.54858 -1.42980 34114 ft 501 kts 336°
2026-04-25 01:08 45.61300 -1.46806 34104 ft 501 kts 336°
2026-04-25 01:08 45.67699 -1.50617 34107 ft 502 kts 336°
2026-04-25 01:09 45.74145 -1.54465 34108 ft 502 kts 336°
2026-04-25 01:09 45.80592 -1.58323 34113 ft 502 kts 335°
2026-04-25 01:10 45.87041 -1.62193 34101 ft 503 kts 335°
2026-04-25 01:10 45.93424 -1.66113 34103 ft 502 kts 332°
2026-04-25 01:11 45.99448 -1.71132 34106 ft 500 kts 326°
2026-04-25 01:11 46.05326 -1.76495 34096 ft 501 kts 326°
2026-04-25 01:12 46.11219 -1.81861 34094 ft 501 kts 326°
2026-04-25 01:12 46.17133 -1.87201 34095 ft 502 kts 326°
2026-04-25 01:13 46.23025 -1.92509 34095 ft 503 kts 326°
2026-04-25 01:13 46.28961 -1.97870 34093 ft 503 kts 326°
2026-04-25 01:14 46.34827 -2.03184 34095 ft 503 kts 326°
2026-04-25 01:14 46.40761 -2.08576 34091 ft 504 kts 326°
2026-04-25 01:15 46.46662 -2.13951 34094 ft 504 kts 326°
2026-04-25 01:15 46.52600 -2.19374 34092 ft 504 kts 326°
2026-04-25 01:16 46.58534 -2.24808 34091 ft 504 kts 326°
2026-04-25 01:16 46.64470 -2.30259 34092 ft 505 kts 326°
2026-04-25 01:17 46.70362 -2.35682 34094 ft 505 kts 326°
2026-04-25 01:17 46.76294 -2.41158 34094 ft 505 kts 325°
2026-04-25 01:18 46.82224 -2.46645 34108 ft 505 kts 325°
2026-04-25 01:18 46.88148 -2.52142 34098 ft 505 kts 325°
2026-04-25 01:19 46.94030 -2.57614 34104 ft 504 kts 325°
2026-04-25 01:19 46.99942 -2.63129 34100 ft 504 kts 325°
2026-04-25 01:20 47.05850 -2.68655 34104 ft 504 kts 325°
2026-04-25 01:20 47.11754 -2.74192 34103 ft 504 kts 325°
2026-04-25 01:21 47.17593 -2.79683 34109 ft 504 kts 325°
2026-04-25 01:21 47.23494 -2.85245 34108 ft 504 kts 325°
2026-04-25 01:22 47.29398 -2.90827 34130 ft 504 kts 324°
2026-04-25 01:22 47.35301 -2.96424 34123 ft 505 kts 324°
2026-04-25 01:23 47.41111 -3.01945 34107 ft 506 kts 324°
2026-04-25 01:23 47.47028 -3.07583 34114 ft 506 kts 324°
2026-04-25 01:24 47.52948 -3.13241 34118 ft 507 kts 324°
2026-04-25 01:24 47.58870 -3.18915 34119 ft 508 kts 324°
2026-04-25 01:25 47.64757 -3.24571 34134 ft 508 kts 324°
2026-04-25 01:25 47.70687 -3.30285 34136 ft 508 kts 324°
2026-04-25 01:26 47.76619 -3.36016 34130 ft 509 kts 324°
2026-04-25 01:26 47.82557 -3.41770 34123 ft 510 kts 324°
2026-04-25 01:27 47.88468 -3.47511 34131 ft 511 kts 324°
2026-04-25 01:27 47.94422 -3.53312 34132 ft 512 kts 324°
2026-04-25 01:28 48.02356 -3.61066 34132 ft 513 kts 324°
2026-04-25 01:28 48.09363 -3.67837 34137 ft 513 kts 324°
2026-04-25 01:29 48.15345 -3.73555 34138 ft 514 kts 324°
2026-04-25 01:29 48.21363 -3.79332 34136 ft 514 kts 324°
2026-04-25 01:30 48.27379 -3.85140 34140 ft 514 kts 324°
2026-04-25 01:30 48.32380 -3.89985 34142 ft 515 kts 324°
2026-04-25 01:31 48.38393 -3.95825 34152 ft 515 kts 324°
2026-04-25 01:31 48.45291 -4.02543 34136 ft 514 kts 324°
2026-04-25 01:32 48.51291 -4.08406 34126 ft 514 kts 324°
2026-04-25 01:32 48.56268 -4.13282 34122 ft 513 kts 324°
2026-04-25 01:33 48.62257 -4.19164 34132 ft 513 kts 323°
2026-04-25 01:33 48.69205 -4.26009 34131 ft 513 kts 323°
2026-04-25 01:34 48.74208 -4.30952 34135 ft 512 kts 323°
2026-04-25 01:34 48.80131 -4.36821 34137 ft 512 kts 323°
2026-04-25 01:35 48.86090 -4.42741 34148 ft 512 kts 323°
2026-04-25 01:35 48.93011 -4.49639 34142 ft 512 kts 323°
2026-04-25 01:36 48.97999 -4.54624 34140 ft 512 kts 323°
2026-04-25 01:36 49.03895 -4.60534 34142 ft 512 kts 323°
2026-04-25 01:37 49.09838 -4.66507 34148 ft 512 kts 323°
2026-04-25 01:37 49.15786 -4.72504 34142 ft 512 kts 323°
2026-04-25 01:38 49.21727 -4.78510 34158 ft 512 kts 323°
2026-04-25 01:38 49.27629 -4.84495 34155 ft 513 kts 322°
2026-04-25 01:39 49.33572 -4.90539 34151 ft 513 kts 322°
2026-04-25 01:39 49.39509 -4.96595 34148 ft 513 kts 322°
2026-04-25 01:40 49.45387 -5.02608 34156 ft 513 kts 322°
2026-04-25 01:40 49.51048 -5.09070 34154 ft 508 kts 315°
2026-04-25 01:41 49.56316 -5.16287 34156 ft 507 kts 314°
2026-04-25 01:41 49.61560 -5.23580 34286 ft 507 kts 314°
2026-04-25 01:42 49.64180 -5.27204 34412 ft 506 kts 314°
2026-04-25 01:42 49.66810 -5.30827 34493 ft 506 kts 314°
2026-04-25 01:42 49.72035 -5.38010 34666 ft 506 kts 314°
2026-04-25 01:43 49.77283 -5.45233 34923 ft 503 kts 315°
2026-04-25 01:43 49.79892 -5.48833 35047 ft 502 kts 315°
2026-04-25 01:43 49.82494 -5.52430 35105 ft 502 kts 315°
2026-04-25 01:44 49.87703 -5.59654 35193 ft 504 kts 315°
2026-04-25 01:44 49.92881 -5.66855 35402 ft 501 kts 314°
2026-04-25 01:45 49.95432 -5.70403 36141 ft 484 kts 314°
2026-04-25 01:45 49.97900 -5.73837 36846 ft 471 kts 314°
2026-04-25 01:45 50.00315 -5.77208 37018 ft 470 kts 314°
2026-04-25 01:45 50.02753 -5.80627 36981 ft 472 kts 314°
2026-04-25 01:46 50.07639 -5.87494 36966 ft 475 kts 314°
2026-04-25 01:46 50.12565 -5.94431 36579 ft 483 kts 314°
2026-04-25 01:47 50.15030 -5.97910 36098 ft 486 kts 314°
2026-04-25 01:47 50.17498 -6.01396 35436 ft 492 kts 314°
2026-04-25 01:47 50.20046 -6.04999 34781 ft 497 kts 314°
2026-04-25 01:47 50.22612 -6.08632 34399 ft 499 kts 314°
2026-04-25 01:48 50.25178 -6.12269 34240 ft 500 kts 314°
2026-04-25 01:48 50.27764 -6.15940 34168 ft 502 kts 314°
2026-04-25 01:48 50.32907 -6.23259 34166 ft 504 kts 314°
2026-04-25 01:49 50.38087 -6.30654 34163 ft 504 kts 314°
2026-04-25 01:49 50.43257 -6.38058 34161 ft 503 kts 314°
2026-04-25 01:50 50.48416 -6.45470 34173 ft 503 kts 314°
2026-04-25 01:50 50.53537 -6.52852 34192 ft 504 kts 313°
2026-04-25 01:51 50.58703 -6.60322 34168 ft 504 kts 313°
2026-04-25 01:51 50.63855 -6.67794 34165 ft 504 kts 313°
2026-04-25 01:52 50.69003 -6.75284 34175 ft 504 kts 313°
2026-04-25 01:52 50.74152 -6.82799 34165 ft 504 kts 313°
2026-04-25 01:53 50.79265 -6.90285 34170 ft 505 kts 313°
2026-04-25 01:53 50.84419 -6.97855 34164 ft 506 kts 313°
2026-04-25 01:54 50.89509 -7.05353 34167 ft 506 kts 313°
2026-04-25 01:54 50.94664 -7.12972 34166 ft 507 kts 312°
2026-04-25 01:55 50.99783 -7.20561 34165 ft 507 kts 312°
2026-04-25 01:55 51.04924 -7.28207 34164 ft 507 kts 312°
2026-04-25 01:56 51.10066 -7.35879 34171 ft 506 kts 312°
2026-04-25 01:56 51.15200 -7.43566 34168 ft 507 kts 312°
2026-04-25 01:57 51.22876 -7.55102 34163 ft 508 kts 312°
2026-04-25 01:58 51.28211 -7.62545 34172 ft 511 kts 316°
2026-04-25 01:58 51.33713 -7.69746 34169 ft 511 kts 317°
2026-04-25 01:59 51.39223 -7.76961 34168 ft 512 kts 316°
2026-04-25 01:59 51.44720 -7.84248 34163 ft 513 kts 316°
2026-04-25 02:00 51.50174 -7.91536 34153 ft 514 kts 316°
2026-04-25 02:00 51.55659 -7.98893 34150 ft 514 kts 316°
2026-04-25 02:01 51.61099 -8.06211 34161 ft 517 kts 316°
2026-04-25 02:01 51.66620 -8.13660 34156 ft 519 kts 316°
2026-04-25 02:02 51.72119 -8.21101 34147 ft 520 kts 316°
2026-04-25 02:02 51.77665 -8.28631 34185 ft 522 kts 316°
2026-04-25 02:03 51.83225 -8.36205 34149 ft 523 kts 316°
2026-04-25 02:03 51.88782 -8.43801 34156 ft 523 kts 316°
2026-04-25 02:04 51.94295 -8.51361 34159 ft 522 kts 316°
2026-04-25 02:04 51.99829 -8.58976 34143 ft 522 kts 316°
2026-04-25 02:05 52.05350 -8.66600 34151 ft 521 kts 316°
2026-04-25 02:05 52.10870 -8.74248 34130 ft 521 kts 316°
2026-04-25 02:06 52.16340 -8.81851 34152 ft 521 kts 316°
2026-04-25 02:06 52.21848 -8.89535 34126 ft 521 kts 316°
2026-04-25 02:07 52.27357 -8.97244 34143 ft 522 kts 316°
2026-04-25 02:07 52.32810 -9.04902 34144 ft 522 kts 316°
2026-04-25 02:08 52.38269 -9.12594 34149 ft 521 kts 316°
2026-04-25 02:08 52.43763 -9.20362 34137 ft 522 kts 316°
2026-04-25 02:09 52.49253 -9.28150 34147 ft 522 kts 316°
2026-04-25 02:09 52.54745 -9.35969 34151 ft 523 kts 316°
2026-04-25 02:10 52.60241 -9.43819 34136 ft 523 kts 316°
2026-04-25 02:10 52.65697 -9.51640 34140 ft 524 kts 316°
2026-04-25 02:11 52.71198 -9.59553 34171 ft 525 kts 316°
2026-04-25 02:11 52.76708 -9.67506 34141 ft 526 kts 316°
2026-04-25 02:12 52.82127 -9.75502 34136 ft 525 kts 314°
2026-04-25 02:12 52.87353 -9.83943 34134 ft 525 kts 313°
2026-04-25 02:13 52.92512 -9.92493 34146 ft 525 kts 313°
2026-04-25 02:13 52.97638 -10.00964 34145 ft 525 kts 313°
2026-04-25 02:14 53.02827 -10.09507 34143 ft 526 kts 313°
2026-04-25 02:14 53.07982 -10.18008 34145 ft 526 kts 313°
2026-04-25 02:15 53.13167 -10.26589 34174 ft 526 kts 313°
2026-04-25 02:15 53.18343 -10.35190 34144 ft 525 kts 313°
2026-04-25 02:16 53.23503 -10.43799 34135 ft 524 kts 312°
2026-04-25 02:16 53.28605 -10.52341 34132 ft 523 kts 313°
2026-04-25 02:17 53.33735 -10.60961 34144 ft 522 kts 313°
2026-04-25 02:17 53.38856 -10.69598 34144 ft 523 kts 313°
2026-04-25 02:18 53.43980 -10.78271 34137 ft 524 kts 313°
2026-04-25 02:18 53.49067 -10.86912 34140 ft 524 kts 313°
2026-04-25 02:19 53.54193 -10.95651 34135 ft 526 kts 313°
2026-04-25 02:19 53.59272 -11.04342 34145 ft 528 kts 313°
2026-04-25 02:20 53.64424 -11.13189 34147 ft 530 kts 313°
2026-04-25 02:20 53.69552 -11.22028 34143 ft 531 kts 313°
2026-04-25 02:21 53.74722 -11.30974 34128 ft 533 kts 312°
2026-04-25 02:21 53.79901 -11.39968 34137 ft 534 kts 312°
2026-04-25 02:22 53.85082 -11.48999 34137 ft 535 kts 312°
2026-04-25 02:22 53.90228 -11.58004 34139 ft 536 kts 312°
2026-04-25 02:23 53.95403 -11.67095 34128 ft 534 kts 313°
2026-04-25 02:23 54.00540 -11.76151 34129 ft 531 kts 312°
2026-04-25 02:24 54.05654 -11.85202 34131 ft 530 kts 312°
2026-04-25 02:24 54.10747 -11.94251 34130 ft 529 kts 312°
2026-04-25 02:25 54.15746 -12.03166 34118 ft 529 kts 312°
2026-04-25 02:25 54.20822 -12.12254 34134 ft 529 kts 312°
2026-04-25 02:26 54.25906 -12.21389 34131 ft 531 kts 312°
2026-04-25 02:26 54.30996 -12.30572 34130 ft 532 kts 311°
2026-04-25 02:27 54.36062 -12.39747 34134 ft 534 kts 312°
2026-04-25 02:27 54.41161 -12.49022 34124 ft 534 kts 311°
2026-04-25 02:28 54.45865 -12.58868 34134 ft 533 kts 306°
2026-04-25 02:28 54.50377 -12.68980 34127 ft 533 kts 306°
2026-04-25 02:29 54.54859 -12.79046 34128 ft 533 kts 306°
2026-04-25 02:29 54.59386 -12.89154 34115 ft 533 kts 306°
2026-04-25 02:30 54.63914 -12.99264 34127 ft 532 kts 306°
2026-04-25 02:30 54.68376 -13.09266 34130 ft 532 kts 306°
2026-04-25 02:31 54.72855 -13.19356 34129 ft 532 kts 306°
2026-04-25 02:31 54.77352 -13.29532 34124 ft 532 kts 306°
2026-04-25 02:32 54.81840 -13.39732 34109 ft 532 kts 306°
2026-04-25 02:32 54.86324 -13.49959 34120 ft 532 kts 306°
2026-04-25 02:33 54.90768 -13.60137 34121 ft 532 kts 306°
2026-04-25 02:33 54.95234 -13.70410 34115 ft 533 kts 306°
2026-04-25 02:34 54.99696 -13.80714 34139 ft 534 kts 306°
2026-04-25 02:34 55.04151 -13.91051 34115 ft 534 kts 306°
2026-04-25 02:35 55.08513 -14.01209 34116 ft 535 kts 306°
2026-04-25 02:35 55.12969 -14.11631 34117 ft 535 kts 306°
2026-04-25 02:36 55.17416 -14.22077 34117 ft 536 kts 306°
2026-04-25 02:36 55.21861 -14.32563 34113 ft 536 kts 306°
2026-04-25 02:37 55.26268 -14.43001 34113 ft 536 kts 306°
2026-04-25 02:37 55.30696 -14.53536 34145 ft 537 kts 305°
2026-04-25 02:38 55.35116 -14.64096 34116 ft 536 kts 305°
2026-04-25 02:38 55.39519 -14.74661 34110 ft 535 kts 305°
2026-04-25 02:39 55.43907 -14.85238 34121 ft 534 kts 305°
2026-04-25 02:39 55.48266 -14.95703 34123 ft 533 kts 308°
2026-04-25 02:40 55.53231 -15.05151 34104 ft 532 kts 319°
2026-04-25 02:40 55.58872 -15.13597 34101 ft 532 kts 320°
2026-04-25 02:41 55.64504 -15.21940 34098 ft 532 kts 321°
2026-04-25 02:41 55.70148 -15.30425 34149 ft 533 kts 320°
2026-04-25 02:42 55.75784 -15.39008 34114 ft 534 kts 320°
2026-04-25 02:42 55.81415 -15.47635 34111 ft 535 kts 320°
2026-04-25 02:43 55.87013 -15.56242 34097 ft 535 kts 320°
2026-04-25 02:43 55.92644 -15.64928 34121 ft 536 kts 320°
2026-04-25 02:44 55.98278 -15.73650 34116 ft 536 kts 320°
2026-04-25 02:44 56.03898 -15.82385 34125 ft 537 kts 320°
2026-04-25 02:45 56.09531 -15.91178 34093 ft 537 kts 320°
2026-04-25 02:45 56.15114 -15.99927 34112 ft 537 kts 320°
2026-04-25 02:46 56.20661 -16.08654 34118 ft 537 kts 320°
2026-04-25 02:46 56.26274 -16.17520 34125 ft 537 kts 320°
2026-04-25 02:47 56.31878 -16.26410 34093 ft 538 kts 320°
2026-04-25 02:47 56.37446 -16.35278 34126 ft 537 kts 320°
2026-04-25 02:48 56.43042 -16.44227 34124 ft 537 kts 320°
2026-04-25 02:48 56.48620 -16.53183 34121 ft 536 kts 320°
2026-04-25 02:49 56.54191 -16.62165 34102 ft 535 kts 320°
2026-04-25 02:49 56.59743 -16.71156 34117 ft 535 kts 320°
2026-04-25 02:50 56.65250 -16.80106 34121 ft 535 kts 320°
2026-04-25 02:50 56.70785 -16.89139 34126 ft 535 kts 320°
2026-04-25 02:51 56.76320 -16.98210 34125 ft 535 kts 320°
2026-04-25 02:51 56.81792 -17.07216 34129 ft 535 kts 321°
2026-04-25 02:52 56.87284 -17.16291 34126 ft 537 kts 321°
2026-04-25 02:52 56.92817 -17.25472 34127 ft 537 kts 320°
2026-04-25 02:53 56.98354 -17.34699 34128 ft 539 kts 320°
2026-04-25 02:53 57.03882 -17.43954 34124 ft 539 kts 321°
2026-04-25 02:54 57.09384 -17.53197 34128 ft 540 kts 321°
2026-04-25 02:54 57.14919 -17.62537 34130 ft 540 kts 320°
2026-04-25 02:55 57.20456 -17.71920 34131 ft 541 kts 320°
2026-04-25 02:55 57.25981 -17.81324 34130 ft 540 kts 320°
2026-04-25 02:56 57.31500 -17.90759 34130 ft 540 kts 320°
2026-04-25 02:56 57.36951 -18.00116 34129 ft 540 kts 320°
2026-04-25 02:57 57.42425 -18.09553 34134 ft 540 kts 320°
2026-04-25 02:57 57.47921 -18.19067 34132 ft 540 kts 320°
2026-04-25 02:58 57.53372 -18.28546 34134 ft 540 kts 320°
2026-04-25 02:58 57.58854 -18.38119 34162 ft 540 kts 320°
2026-04-25 02:59 57.64331 -18.47725 34135 ft 541 kts 320°
2026-04-25 02:59 57.69805 -18.57368 34120 ft 540 kts 320°
2026-04-25 03:00 57.75264 -18.67027 34129 ft 540 kts 320°
2026-04-25 03:00 57.80682 -18.76653 34142 ft 540 kts 320°
2026-04-25 03:01 57.86129 -18.86375 34143 ft 540 kts 320°
2026-04-25 03:01 57.91567 -18.96122 34116 ft 540 kts 319°
2026-04-25 03:02 57.96935 -19.05786 34140 ft 540 kts 319°
2026-04-25 03:02 58.02299 -19.15487 34141 ft 539 kts 319°
2026-04-25 03:03 58.07705 -19.25307 34135 ft 539 kts 319°
2026-04-25 03:03 58.13104 -19.35157 34124 ft 539 kts 318°
2026-04-25 03:04 58.18487 -19.45019 34138 ft 538 kts 318°
2026-04-25 03:04 58.23856 -19.54903 34145 ft 537 kts 318°
2026-04-25 03:05 58.31851 -19.69701 34147 ft 537 kts 318°
2026-04-25 03:05 58.37187 -19.79633 34134 ft 536 kts 318°
2026-04-25 03:06 58.42508 -19.89580 34139 ft 535 kts 317°
2026-04-25 03:06 58.47770 -19.99462 34157 ft 534 kts 317°
2026-04-25 03:07 58.52990 -20.09308 34148 ft 533 kts 317°
2026-04-25 03:07 58.58258 -20.19289 34122 ft 532 kts 317°
2026-04-25 03:08 58.63507 -20.29278 34151 ft 531 kts 317°
2026-04-25 03:08 58.68700 -20.39206 34157 ft 530 kts 317°
2026-04-25 03:09 58.73914 -20.49219 34156 ft 530 kts 317°
2026-04-25 03:09 58.79120 -20.59259 34164 ft 529 kts 316°
2026-04-25 03:10 58.84316 -20.69328 34166 ft 529 kts 316°
2026-04-25 03:10 58.89472 -20.79363 34163 ft 530 kts 316°
2026-04-25 03:11 58.94656 -20.89499 34173 ft 530 kts 316°
2026-04-25 03:11 58.99821 -20.99706 34171 ft 531 kts 314°
2026-04-25 03:12 59.04441 -21.10692 34170 ft 531 kts 309°
2026-04-25 03:12 59.08880 -21.22020 34166 ft 530 kts 308°
2026-04-25 03:13 59.13339 -21.33419 34173 ft 529 kts 309°
2026-04-25 03:13 59.17812 -21.44786 34174 ft 528 kts 309°
2026-04-25 03:14 59.22283 -21.56144 34174 ft 527 kts 309°
2026-04-25 03:14 59.26736 -21.67508 34174 ft 526 kts 308°
2026-04-25 03:15 59.31138 -21.78805 34192 ft 526 kts 308°
2026-04-25 03:15 59.35560 -21.90215 34184 ft 526 kts 308°
2026-04-25 03:16 59.39924 -22.01530 34183 ft 527 kts 308°
2026-04-25 03:16 59.44306 -22.12945 34182 ft 527 kts 308°
2026-04-25 03:17 59.48704 -22.24459 34190 ft 526 kts 308°
2026-04-25 03:17 59.53086 -22.35987 34189 ft 526 kts 308°
2026-04-25 03:18 59.57458 -22.47546 34188 ft 525 kts 308°
2026-04-25 03:18 59.61776 -22.59020 34199 ft 524 kts 308°
2026-04-25 03:19 59.66118 -22.70610 34198 ft 524 kts 308°
2026-04-25 03:19 59.70445 -22.82222 34207 ft 524 kts 307°
2026-04-25 03:20 59.74767 -22.93874 34202 ft 526 kts 307°
2026-04-25 03:20 59.79035 -23.05439 34202 ft 527 kts 307°
2026-04-25 03:21 59.83334 -23.17147 34200 ft 529 kts 307°
2026-04-25 03:21 59.87664 -23.28997 34202 ft 529 kts 307°
2026-04-25 03:22 59.91973 -23.40855 34200 ft 528 kts 307°
2026-04-25 03:22 59.96268 -23.52730 34204 ft 527 kts 307°
2026-04-25 03:23 60.00501 -23.64492 34206 ft 526 kts 307°
2026-04-25 03:23 60.04761 -23.76393 34207 ft 525 kts 307°
2026-04-25 03:24 60.08999 -23.88287 34208 ft 524 kts 306°
2026-04-25 03:24 60.13196 -24.00131 34221 ft 523 kts 306°
2026-04-25 03:25 60.17328 -24.11849 34213 ft 522 kts 306°
2026-04-25 03:25 60.21515 -24.23782 34219 ft 522 kts 306°
2026-04-25 03:26 60.25690 -24.35743 34215 ft 523 kts 306°
2026-04-25 03:26 60.29858 -24.47746 34228 ft 522 kts 306°
2026-04-25 03:27 60.33989 -24.59701 34219 ft 522 kts 306°
2026-04-25 03:27 60.38131 -24.71754 34226 ft 522 kts 306°
2026-04-25 03:28 60.42261 -24.83833 34225 ft 522 kts 306°
2026-04-25 03:28 60.46381 -24.95943 34232 ft 522 kts 305°
2026-04-25 03:29 60.50407 -25.07838 34235 ft 521 kts 305°
2026-04-25 03:29 60.54493 -25.19976 34238 ft 521 kts 305°
2026-04-25 03:30 60.58569 -25.32147 34233 ft 521 kts 305°
2026-04-25 03:30 60.62633 -25.44346 34242 ft 521 kts 305°
2026-04-25 03:31 60.66689 -25.56583 34245 ft 521 kts 304°
2026-04-25 03:31 60.70699 -25.68745 34240 ft 520 kts 304°
2026-04-25 03:32 60.74723 -25.81018 34244 ft 519 kts 304°
2026-04-25 03:32 60.78726 -25.93289 34249 ft 518 kts 304°
2026-04-25 03:33 60.82662 -26.05417 34254 ft 518 kts 304°
2026-04-25 03:33 60.86609 -26.17646 34252 ft 517 kts 304°
2026-04-25 03:34 60.90565 -26.29963 34256 ft 516 kts 303°
2026-04-25 03:34 60.94509 -26.42315 34257 ft 516 kts 303°
2026-04-25 03:35 60.98439 -26.54685 34257 ft 516 kts 303°
2026-04-25 03:35 61.02323 -26.66979 34262 ft 516 kts 303°
2026-04-25 03:36 61.06232 -26.79413 34262 ft 517 kts 303°
2026-04-25 03:36 61.10129 -26.91879 34274 ft 516 kts 303°
2026-04-25 03:37 61.13955 -27.04184 34265 ft 515 kts 303°
2026-04-25 03:37 61.17792 -27.16593 34270 ft 515 kts 302°
2026-04-25 03:38 61.21639 -27.29101 34274 ft 514 kts 302°
2026-04-25 03:38 61.25473 -27.41632 34274 ft 514 kts 302°
2026-04-25 03:39 61.29296 -27.54192 34280 ft 513 kts 302°
2026-04-25 03:39 61.33075 -27.66683 34277 ft 514 kts 302°
2026-04-25 03:40 61.36868 -27.79290 34279 ft 513 kts 302°
2026-04-25 03:40 61.40653 -27.91936 34284 ft 514 kts 302°
2026-04-25 03:41 61.44375 -28.04439 34284 ft 514 kts 302°
2026-04-25 03:41 61.48133 -28.17130 34290 ft 513 kts 301°
2026-04-25 03:42 61.51852 -28.29765 34266 ft 513 kts 301°
2026-04-25 03:42 61.55580 -28.42499 34297 ft 512 kts 301°
2026-04-25 03:43 61.59291 -28.55249 34293 ft 512 kts 301°
2026-04-25 03:43 61.62963 -28.67931 34293 ft 511 kts 301°
2026-04-25 03:44 61.66647 -28.80728 34295 ft 511 kts 301°
2026-04-25 03:44 61.70319 -28.93557 34288 ft 512 kts 301°
2026-04-25 03:45 61.73937 -29.06267 34288 ft 512 kts 300°
2026-04-25 03:45 61.77599 -29.19202 34305 ft 513 kts 300°
2026-04-25 03:46 61.81223 -29.32079 34302 ft 513 kts 300°
2026-04-25 03:46 61.84861 -29.45081 34296 ft 513 kts 300°
2026-04-25 03:47 61.88485 -29.58106 34287 ft 513 kts 300°
2026-04-25 03:47 61.92092 -29.71144 34308 ft 512 kts 300°
2026-04-25 03:48 61.95656 -29.84101 34303 ft 511 kts 300°
2026-04-25 03:48 61.99241 -29.97174 34302 ft 511 kts 301°
2026-04-25 03:49 62.03295 -30.09324 34317 ft 511 kts 307°
2026-04-25 03:49 62.07725 -30.21164 34307 ft 510 kts 308°
2026-04-25 03:50 62.12117 -30.32938 34312 ft 510 kts 307°
2026-04-25 03:50 62.16501 -30.44887 34308 ft 510 kts 307°
2026-04-25 03:51 62.20857 -30.56891 34308 ft 510 kts 307°
2026-04-25 03:51 62.25198 -30.68932 34307 ft 510 kts 306°
2026-04-25 03:52 62.29503 -30.80927 34312 ft 510 kts 306°
2026-04-25 03:52 62.33828 -30.93036 34315 ft 511 kts 306°
2026-04-25 03:53 62.38089 -31.05029 34319 ft 511 kts 306°
2026-04-25 03:53 62.42394 -31.17209 34317 ft 511 kts 306°
2026-04-25 03:54 62.46690 -31.29430 34317 ft 511 kts 306°
2026-04-25 03:54 62.50949 -31.41611 34320 ft 511 kts 305°
2026-04-25 03:55 62.55226 -31.53909 34320 ft 511 kts 305°
2026-04-25 03:55 62.59495 -31.66251 34318 ft 511 kts 305°
2026-04-25 03:56 62.63752 -31.78624 34326 ft 511 kts 305°
2026-04-25 03:56 62.67973 -31.90958 34320 ft 512 kts 305°
2026-04-25 03:57 62.72157 -32.03253 34320 ft 512 kts 304°
2026-04-25 03:57 62.76385 -32.15744 34321 ft 512 kts 304°
2026-04-25 03:58 62.80607 -32.28286 34323 ft 512 kts 304°
2026-04-25 03:58 62.84788 -32.40776 34330 ft 512 kts 304°
2026-04-25 03:59 62.88983 -32.53375 34321 ft 512 kts 304°
2026-04-25 03:59 62.93164 -32.66002 34324 ft 511 kts 304°
2026-04-25 04:00 62.97305 -32.78579 34328 ft 511 kts 304°
2026-04-25 04:00 63.01454 -32.91248 34327 ft 511 kts 304°
2026-04-25 04:01 63.05541 -33.03800 34327 ft 511 kts 303°
2026-04-25 04:01 63.09670 -33.16549 34324 ft 511 kts 303°
2026-04-25 04:02 63.13789 -33.29343 34322 ft 511 kts 303°
2026-04-25 04:02 63.17869 -33.42087 34323 ft 511 kts 303°
2026-04-25 04:03 63.21967 -33.54955 34324 ft 511 kts 303°
2026-04-25 04:03 63.26059 -33.67882 34323 ft 512 kts 303°
2026-04-25 04:04 63.30147 -33.80869 34330 ft 513 kts 302°
2026-04-25 04:04 63.34203 -33.93824 34341 ft 513 kts 302°
2026-04-25 04:05 63.38209 -34.06695 34328 ft 511 kts 302°
2026-04-25 04:05 63.42239 -34.19717 34328 ft 509 kts 302°
2026-04-25 04:06 63.46239 -34.32716 34327 ft 507 kts 302°
2026-04-25 04:06 63.50213 -34.45707 34327 ft 505 kts 302°
2026-04-25 04:07 63.54169 -34.58715 34332 ft 504 kts 302°
2026-04-25 04:07 63.58078 -34.71643 34332 ft 504 kts 301°
2026-04-25 04:08 63.62008 -34.84714 34332 ft 505 kts 301°
2026-04-25 04:08 63.65927 -34.97825 34333 ft 505 kts 301°
2026-04-25 04:09 63.69790 -35.10821 34337 ft 506 kts 301°
2026-04-25 04:09 63.73670 -35.23952 34337 ft 507 kts 301°
2026-04-25 04:10 63.77569 -35.37224 34337 ft 507 kts 301°
2026-04-25 04:10 63.81464 -35.50559 34340 ft 508 kts 301°
2026-04-25 04:11 63.87292 -35.70665 34347 ft 510 kts 300°
2026-04-25 04:12 63.91153 -35.84084 34357 ft 512 kts 300°
2026-04-25 04:12 63.94978 -35.97443 34339 ft 498 kts 300°
2026-04-25 04:13 63.98680 -36.10462 34352 ft 496 kts 300°
2026-04-25 04:13 64.02414 -36.23678 34364 ft 497 kts 300°
2026-04-25 04:14 64.06122 -36.36877 34363 ft 498 kts 300°
2026-04-25 04:14 64.09850 -36.50219 34362 ft 498 kts 300°
2026-04-25 04:15 64.13571 -36.63618 34365 ft 499 kts 299°
2026-04-25 04:15 64.17285 -36.77070 34368 ft 500 kts 299°
2026-04-25 04:16 64.20968 -36.90492 34381 ft 501 kts 299°
2026-04-25 04:16 64.24620 -37.03883 34371 ft 502 kts 299°
2026-04-25 04:17 64.28324 -37.17543 34382 ft 503 kts 298°
2026-04-25 04:17 64.32018 -37.31253 34378 ft 504 kts 298°
2026-04-25 04:18 64.35679 -37.44923 34380 ft 505 kts 298°
2026-04-25 04:18 64.39361 -37.58756 34391 ft 505 kts 298°
2026-04-25 04:19 64.43033 -37.72639 34381 ft 506 kts 298°
2026-04-25 04:19 64.46699 -37.86586 34379 ft 507 kts 298°
2026-04-25 04:20 64.50283 -38.00297 34385 ft 497 kts 298°
2026-04-25 04:20 64.53809 -38.13870 34385 ft 492 kts 298°
2026-04-25 04:21 64.57330 -38.27526 34404 ft 492 kts 297°
2026-04-25 04:21 64.60847 -38.41250 34394 ft 495 kts 297°
2026-04-25 04:22 64.64349 -38.54994 34400 ft 498 kts 297°
2026-04-25 04:22 64.67880 -38.68937 34398 ft 500 kts 297°
2026-04-25 04:23 64.71415 -38.82983 34396 ft 502 kts 297°
2026-04-25 04:23 64.74946 -38.97100 34400 ft 503 kts 297°
2026-04-25 04:24 64.78399 -39.10998 34401 ft 504 kts 296°
2026-04-25 04:24 64.81908 -39.25211 34399 ft 503 kts 296°
2026-04-25 04:25 64.85402 -39.39453 34394 ft 502 kts 296°
2026-04-25 04:25 64.88873 -39.53696 34397 ft 501 kts 296°
2026-04-25 04:26 64.92300 -39.67855 34404 ft 500 kts 296°
2026-04-25 04:26 64.95732 -39.82114 34402 ft 500 kts 296°
2026-04-25 04:27 64.99108 -39.96448 34385 ft 497 kts 292°
2026-04-25 04:27 65.01552 -40.11307 34408 ft 490 kts 283°
2026-04-25 04:28 65.03449 -40.26769 34402 ft 487 kts 283°
2026-04-25 04:28 65.05300 -40.42065 34403 ft 486 kts 283°
2026-04-25 04:29 65.07176 -40.57413 34406 ft 484 kts 283°
2026-04-25 04:29 65.09049 -40.72727 34389 ft 483 kts 283°
2026-04-25 04:30 65.10894 -40.87931 34381 ft 482 kts 282°
2026-04-25 04:30 65.12708 -41.03039 34386 ft 482 kts 282°
2026-04-25 04:31 65.14531 -41.18376 34340 ft 482 kts 282°
2026-04-25 04:31 65.16336 -41.33721 34353 ft 482 kts 282°
2026-04-25 04:32 65.18127 -41.49099 34347 ft 482 kts 282°
2026-04-25 04:32 65.19891 -41.64404 34295 ft 483 kts 282°
2026-04-25 04:33 65.21654 -41.79844 34288 ft 483 kts 282°
2026-04-25 04:33 65.23400 -41.95298 34275 ft 483 kts 282°
2026-04-25 04:34 65.24816 -42.07958 34275 ft 483 kts 282°
2026-04-25 04:34 65.26532 -42.23442 34236 ft 482 kts 281°
2026-04-25 04:35 65.28505 -42.41454 34240 ft 482 kts 281°
2026-04-25 04:35 65.29903 -42.54355 34239 ft 482 kts 281°
2026-04-25 04:36 65.31570 -42.69887 34226 ft 482 kts 281°
2026-04-25 04:36 65.33487 -42.87958 34225 ft 482 kts 281°
2026-04-25 04:37 65.35098 -43.03331 34223 ft 482 kts 281°
2026-04-25 04:37 65.36442 -43.16289 34221 ft 482 kts 281°
2026-04-25 04:38 65.38046 -43.31909 34245 ft 483 kts 281°
2026-04-25 04:38 65.39636 -43.47562 34253 ft 483 kts 281°
2026-04-25 04:39 65.41207 -43.63210 34228 ft 482 kts 281°
2026-04-25 04:39 65.42749 -43.78748 34252 ft 481 kts 281°
2026-04-25 04:40 65.44280 -43.94358 34258 ft 480 kts 281°
2026-04-25 04:40 65.45772 -44.09746 34281 ft 479 kts 281°
2026-04-25 04:41 65.47268 -44.25364 34270 ft 478 kts 280°
2026-04-25 04:41 65.48734 -44.40852 34274 ft 478 kts 281°
2026-04-25 04:42 65.50196 -44.56469 34292 ft 478 kts 281°
2026-04-25 04:42 65.51639 -44.72091 34291 ft 477 kts 281°
2026-04-25 04:43 65.53067 -44.87732 34309 ft 478 kts 281°
2026-04-25 04:43 65.54452 -45.03086 34304 ft 478 kts 281°
2026-04-25 04:44 65.55850 -45.18788 34305 ft 478 kts 281°
2026-04-25 04:44 65.57229 -45.34497 34313 ft 478 kts 282°
2026-04-25 04:45 65.58592 -45.50178 34301 ft 476 kts 282°
2026-04-25 04:45 65.59927 -45.65742 34306 ft 475 kts 282°
2026-04-25 04:46 65.61248 -45.81367 34306 ft 474 kts 282°
2026-04-25 04:46 65.62552 -45.96984 34306 ft 473 kts 282°
2026-04-25 04:47 65.63821 -46.12391 34309 ft 472 kts 281°
2026-04-25 04:47 65.65085 -46.27966 34306 ft 466 kts 282°
2026-04-25 04:48 65.66301 -46.43141 34301 ft 459 kts 282°
2026-04-25 04:48 65.67504 -46.58327 34308 ft 458 kts 282°
2026-04-25 04:49 65.68691 -46.73525 34311 ft 459 kts 282°
2026-04-25 04:49 65.69864 -46.88755 34307 ft 459 kts 282°
2026-04-25 04:50 65.71007 -47.03809 34305 ft 460 kts 282°
2026-04-25 04:50 65.72146 -47.19014 34307 ft 461 kts 282°
2026-04-25 04:51 65.73278 -47.34340 34305 ft 461 kts 281°
2026-04-25 04:51 65.74394 -47.49696 34307 ft 461 kts 281°
2026-04-25 04:52 65.75495 -47.65069 34311 ft 461 kts 281°
2026-04-25 04:52 65.76575 -47.80351 34301 ft 461 kts 281°
2026-04-25 04:53 65.77645 -47.95750 34318 ft 462 kts 281°
2026-04-25 04:53 65.78689 -48.10975 34317 ft 462 kts 281°
2026-04-25 04:54 65.79733 -48.26433 34307 ft 462 kts 280°
2026-04-25 04:54 65.80753 -48.41813 34313 ft 462 kts 280°
2026-04-25 04:55 65.81762 -48.57282 34330 ft 462 kts 280°
2026-04-25 04:55 65.82758 -48.72768 34324 ft 462 kts 280°
2026-04-25 04:56 65.83738 -48.88273 34328 ft 462 kts 279°
2026-04-25 04:56 65.84688 -49.03556 34331 ft 462 kts 279°
2026-04-25 04:57 65.85630 -49.18963 34372 ft 461 kts 279°
2026-04-25 04:57 65.86560 -49.34453 34357 ft 461 kts 279°
2026-04-25 04:58 65.87474 -49.49941 34354 ft 460 kts 278°
2026-04-25 04:58 65.88370 -49.65405 34381 ft 459 kts 278°
2026-04-25 04:59 65.89245 -49.80775 34367 ft 459 kts 278°
2026-04-25 04:59 65.90109 -49.96244 34374 ft 459 kts 278°
2026-04-25 05:00 65.90947 -50.11521 34374 ft 459 kts 278°
2026-04-25 05:00 65.91781 -50.27016 34379 ft 459 kts 277°
2026-04-25 05:01 65.92592 -50.42398 34375 ft 458 kts 277°
2026-04-25 05:01 65.93393 -50.57890 34371 ft 458 kts 277°
2026-04-25 05:02 65.94178 -50.73368 34385 ft 458 kts 277°
2026-04-25 05:02 65.94947 -50.88858 34384 ft 458 kts 277°
2026-04-25 05:03 65.95685 -51.04043 34363 ft 457 kts 277°
2026-04-25 05:03 65.96423 -51.19524 34393 ft 453 kts 277°
2026-04-25 05:04 65.97129 -51.34691 34384 ft 445 kts 277°
2026-04-25 05:04 65.97816 -51.49763 34385 ft 444 kts 277°
2026-04-25 05:05 65.98489 -51.64830 34385 ft 444 kts 277°
2026-04-25 05:05 65.99144 -51.79808 34394 ft 445 kts 277°
2026-04-25 05:06 65.99800 -51.94931 34403 ft 446 kts 278°
2026-04-25 05:06 66.01084 -52.09607 34394 ft 446 kts 287°
2026-04-25 05:07 66.02848 -52.24110 34398 ft 446 kts 287°
2026-04-25 05:07 66.04603 -52.38753 34412 ft 447 kts 286°
2026-04-25 05:08 66.06336 -52.53466 34380 ft 448 kts 286°
2026-04-25 05:08 66.08049 -52.68207 34383 ft 448 kts 286°
2026-04-25 05:09 66.09734 -52.82867 34382 ft 447 kts 286°
2026-04-25 05:09 66.11413 -52.97617 34434 ft 446 kts 285°
2026-04-25 05:10 66.13032 -53.11965 34403 ft 435 kts 285°
2026-04-25 05:10 66.14638 -53.26331 34404 ft 433 kts 285°
2026-04-25 05:11 66.16214 -53.40570 34425 ft 432 kts 285°
2026-04-25 05:11 66.17785 -53.54904 34419 ft 432 kts 285°
2026-04-25 05:12 66.20123 -53.76495 34449 ft 434 kts 285°
2026-04-25 05:12 66.21671 -53.90958 34465 ft 435 kts 284°
2026-04-25 05:13 66.23173 -54.05136 34472 ft 434 kts 284°
2026-04-25 05:13 66.24690 -54.19604 34467 ft 433 kts 284°
2026-04-25 05:14 66.26192 -54.34075 34464 ft 432 kts 284°
2026-04-25 05:15 66.28413 -54.55743 34493 ft 431 kts 284°
2026-04-25 05:15 66.29863 -54.70073 34492 ft 430 kts 284°
2026-04-25 05:16 66.31310 -54.84508 34522 ft 430 kts 283°
2026-04-25 05:16 66.32739 -54.98937 34515 ft 429 kts 283°
2026-04-25 05:17 66.34131 -55.13129 34532 ft 427 kts 282°
2026-04-25 05:17 66.35516 -55.27397 34530 ft 426 kts 282°
2026-04-25 05:18 66.36895 -55.41756 34530 ft 425 kts 283°
2026-04-25 05:18 66.38257 -55.56085 34540 ft 425 kts 283°
2026-04-25 05:19 66.39608 -55.70456 34565 ft 426 kts 282°
2026-04-25 05:19 66.40938 -55.84759 34571 ft 426 kts 282°
2026-04-25 05:20 66.42262 -55.99162 34564 ft 425 kts 282°
2026-04-25 05:20 66.43555 -56.13386 34566 ft 425 kts 282°
2026-04-25 05:21 66.44851 -56.27789 34576 ft 425 kts 282°
2026-04-25 05:21 66.46125 -56.42113 34582 ft 424 kts 282°
2026-04-25 05:22 66.47392 -56.56526 34656 ft 424 kts 281°
2026-04-25 05:22 66.48648 -56.70981 34606 ft 425 kts 281°
2026-04-25 05:23 66.49889 -56.85427 34595 ft 424 kts 281°
2026-04-25 05:23 66.51108 -56.99782 34607 ft 424 kts 281°
2026-04-25 05:24 66.52304 -57.14035 34606 ft 423 kts 281°
2026-04-25 05:24 66.53501 -57.28474 34613 ft 423 kts 281°
2026-04-25 05:25 66.54685 -57.42927 34620 ft 422 kts 281°
2026-04-25 05:25 66.55847 -57.57291 34630 ft 423 kts 280°
2026-04-25 05:26 66.57004 -57.71766 34630 ft 423 kts 280°
2026-04-25 05:26 66.58146 -57.86238 34563 ft 422 kts 281°
2026-04-25 05:27 66.59257 -58.00492 34621 ft 420 kts 281°
2026-04-25 05:27 66.60365 -58.14885 34638 ft 419 kts 280°
2026-04-25 05:28 66.61451 -58.29189 34645 ft 419 kts 280°
2026-04-25 05:28 66.62533 -58.43618 34687 ft 420 kts 280°
2026-04-25 05:29 66.63604 -58.58079 34659 ft 420 kts 280°
2026-04-25 05:29 66.64652 -58.72433 34650 ft 419 kts 279°
2026-04-25 05:30 66.65693 -58.86871 34660 ft 418 kts 279°
2026-04-25 05:30 66.66705 -59.01109 34660 ft 418 kts 279°
2026-04-25 05:31 66.67717 -59.15542 34665 ft 417 kts 279°
2026-04-25 05:31 66.68715 -59.29971 34662 ft 417 kts 279°
2026-04-25 05:32 66.69695 -59.44337 34668 ft 418 kts 279°
2026-04-25 05:32 66.70666 -59.58790 34670 ft 417 kts 279°
2026-04-25 05:33 66.71624 -59.73244 34673 ft 417 kts 279°
2026-04-25 05:33 66.72567 -59.87699 34669 ft 416 kts 278°
2026-04-25 05:34 66.73478 -60.01857 34671 ft 416 kts 278°
2026-04-25 05:34 66.74395 -60.16317 34670 ft 416 kts 278°
2026-04-25 05:35 66.75297 -60.30782 34726 ft 417 kts 278°
2026-04-25 05:35 66.75744 -60.38030 34596 ft 417 kts 278°
2026-04-25 05:35 66.76187 -60.45270 34649 ft 415 kts 279°
2026-04-25 05:36 66.77057 -60.59658 34670 ft 412 kts 279°
2026-04-25 05:36 66.77905 -60.73892 34676 ft 411 kts 278°
2026-04-25 05:37 66.78744 -60.88203 34676 ft 410 kts 278°
2026-04-25 05:37 66.79557 -61.02305 34673 ft 409 kts 278°
2026-04-25 05:38 66.80368 -61.16591 34672 ft 409 kts 278°
2026-04-25 05:38 66.81166 -61.30900 34674 ft 410 kts 278°
2026-04-25 05:39 66.81947 -61.45132 34676 ft 410 kts 278°
2026-04-25 05:39 66.82720 -61.59479 34671 ft 411 kts 278°
2026-04-25 05:40 66.83482 -61.73857 34672 ft 410 kts 278°
2026-04-25 05:40 66.84231 -61.88245 34684 ft 411 kts 278°
2026-04-25 05:41 66.84953 -62.02377 34675 ft 412 kts 277°
2026-04-25 05:41 66.85677 -62.16826 34656 ft 411 kts 277°
2026-04-25 05:42 66.86388 -62.31213 34683 ft 409 kts 277°
2026-04-25 05:42 66.87081 -62.45570 34668 ft 409 kts 277°
2026-04-25 05:43 66.87754 -62.59797 34668 ft 407 kts 277°
2026-04-25 05:43 66.88417 -62.74097 34675 ft 407 kts 277°
2026-04-25 05:44 66.89068 -62.88389 34666 ft 406 kts 277°
2026-04-25 05:44 66.89694 -63.02436 34643 ft 404 kts 277°
2026-04-25 05:45 66.90311 -63.16549 34683 ft 404 kts 277°
2026-04-25 05:45 66.90919 -63.30762 34685 ft 403 kts 277°
2026-04-25 05:46 66.91513 -63.44939 34681 ft 402 kts 277°
2026-04-25 05:46 66.92093 -63.59098 34684 ft 401 kts 277°
2026-04-25 05:47 66.92653 -63.73127 34684 ft 400 kts 277°
2026-04-25 05:47 66.93207 -63.87268 34676 ft 401 kts 277°
2026-04-25 05:48 66.93738 -64.01205 34720 ft 400 kts 277°
2026-04-25 05:48 66.94270 -64.15371 34674 ft 401 kts 276°
2026-04-25 05:49 66.94788 -64.29565 34668 ft 401 kts 276°
2026-04-25 05:49 66.95289 -64.43637 34647 ft 401 kts 276°
2026-04-25 05:50 66.95779 -64.57815 34637 ft 401 kts 276°
2026-04-25 05:50 66.96258 -64.72008 34636 ft 402 kts 276°
2026-04-25 05:51 66.96724 -64.86207 34642 ft 401 kts 276°
2026-04-25 05:51 66.97173 -65.00229 34658 ft 401 kts 275°
2026-04-25 05:52 66.97609 -65.14323 34616 ft 401 kts 275°
2026-04-25 05:52 66.98037 -65.28507 34633 ft 401 kts 275°
2026-04-25 05:53 66.98449 -65.42591 34624 ft 400 kts 275°
2026-04-25 05:53 66.98850 -65.56763 34574 ft 400 kts 276°
2026-04-25 05:54 66.99238 -65.70891 34663 ft 398 kts 276°
2026-04-25 05:54 66.99798 -65.92027 34684 ft 397 kts 276°
2026-04-25 05:55 67.00177 -66.05755 34675 ft 395 kts 277°
2026-04-25 05:55 67.00735 -66.19712 34686 ft 394 kts 278°
2026-04-25 05:56 67.01315 -66.33667 34714 ft 394 kts 278°
2026-04-25 05:56 67.01867 -66.47607 34692 ft 394 kts 278°
2026-04-25 05:57 67.02391 -66.61446 34701 ft 394 kts 277°
2026-04-25 05:57 67.02903 -66.75387 34717 ft 394 kts 277°
2026-04-25 05:58 67.03401 -66.89347 34736 ft 394 kts 277°
2026-04-25 05:58 67.03882 -67.03161 34737 ft 395 kts 277°
2026-04-25 05:59 67.04358 -67.17185 34734 ft 395 kts 277°
2026-04-25 05:59 67.04818 -67.31119 34735 ft 395 kts 277°
2026-04-25 06:00 67.05270 -67.45163 34749 ft 395 kts 277°
2026-04-25 06:00 67.05709 -67.59216 34748 ft 396 kts 276°
2026-04-25 06:01 67.06133 -67.73173 34752 ft 396 kts 276°
2026-04-25 06:01 67.06548 -67.87232 34760 ft 396 kts 276°
2026-04-25 06:02 67.06945 -68.01137 34766 ft 396 kts 276°
2026-04-25 06:02 67.07335 -68.15202 34758 ft 395 kts 276°
2026-04-25 06:03 67.07713 -68.29260 34771 ft 395 kts 276°
2026-04-25 06:03 67.08075 -68.43228 34765 ft 395 kts 276°
2026-04-25 06:04 67.08427 -68.57267 34747 ft 393 kts 277°
2026-04-25 06:04 67.08762 -68.71189 34772 ft 390 kts 277°
2026-04-25 06:05 67.09085 -68.85047 34782 ft 388 kts 277°
2026-04-25 06:05 67.09393 -68.98758 34790 ft 387 kts 277°
2026-04-25 06:06 67.09686 -69.12341 34776 ft 385 kts 277°
2026-04-25 06:06 67.09971 -69.26054 34785 ft 385 kts 276°
2026-04-25 06:07 67.10243 -69.39766 34792 ft 385 kts 276°
2026-04-25 06:07 67.10504 -69.53494 34783 ft 385 kts 276°
2026-04-25 06:08 67.10752 -69.67135 34793 ft 385 kts 276°
2026-04-25 06:08 67.10989 -69.80883 34802 ft 386 kts 276°
2026-04-25 06:09 67.11215 -69.94639 34803 ft 385 kts 276°
2026-04-25 06:09 67.11424 -70.08124 34806 ft 385 kts 276°
2026-04-25 06:10 67.11626 -70.21863 34817 ft 385 kts 276°
2026-04-25 06:10 67.11817 -70.35621 34804 ft 385 kts 276°
2026-04-25 06:11 67.11995 -70.49365 34809 ft 385 kts 276°
2026-04-25 06:11 67.12161 -70.63029 34813 ft 385 kts 276°
2026-04-25 06:12 67.12315 -70.76775 34812 ft 385 kts 275°
2026-04-25 06:12 67.12459 -70.90549 34816 ft 385 kts 275°
2026-04-25 06:13 67.12588 -71.04128 34816 ft 385 kts 275°
2026-04-25 06:14 67.12763 -71.24678 34812 ft 385 kts 275°
2026-04-25 06:14 67.12864 -71.38437 34818 ft 385 kts 275°
2026-04-25 06:15 67.12954 -71.52211 34803 ft 385 kts 275°
2026-04-25 06:15 67.13032 -71.65937 34828 ft 382 kts 275°
2026-04-25 06:16 67.13097 -71.79470 34821 ft 380 kts 275°
2026-04-25 06:16 67.13151 -71.93039 34830 ft 379 kts 275°
2026-04-25 06:17 67.13193 -72.06393 34819 ft 378 kts 275°
2026-04-25 06:17 67.13224 -72.19885 34828 ft 377 kts 275°
2026-04-25 06:18 67.13244 -72.33270 34826 ft 377 kts 275°
2026-04-25 06:18 67.13253 -72.46719 34830 ft 376 kts 275°
2026-04-25 06:19 67.13250 -72.60176 34850 ft 376 kts 275°
2026-04-25 06:19 67.13235 -72.73631 34834 ft 376 kts 275°
2026-04-25 06:20 67.13210 -72.86966 34837 ft 376 kts 275°
2026-04-25 06:20 67.13173 -73.00281 34835 ft 375 kts 275°
2026-04-25 06:21 67.13126 -73.13640 34839 ft 375 kts 275°
2026-04-25 06:21 67.13067 -73.27068 34838 ft 376 kts 274°
2026-04-25 06:22 67.12997 -73.40391 34840 ft 376 kts 274°
2026-04-25 06:22 67.12916 -73.53830 34848 ft 375 kts 274°
2026-04-25 06:23 67.12823 -73.67236 34841 ft 375 kts 274°
2026-04-25 06:23 67.12719 -73.80609 34842 ft 374 kts 274°
2026-04-25 06:24 67.12605 -73.93857 34845 ft 373 kts 274°
2026-04-25 06:24 67.12482 -74.07022 34843 ft 373 kts 274°
2026-04-25 06:25 67.12346 -74.20334 34844 ft 372 kts 274°
2026-04-25 06:25 67.12199 -74.33634 34848 ft 372 kts 274°
2026-04-25 06:26 67.12042 -74.46855 34864 ft 372 kts 273°
2026-04-25 06:26 67.11872 -74.60152 34851 ft 372 kts 273°
2026-04-25 06:27 67.11692 -74.73423 34857 ft 372 kts 273°
2026-04-25 06:27 67.11501 -74.86690 34852 ft 371 kts 273°
2026-04-25 06:28 67.11299 -74.99927 34855 ft 371 kts 273°
2026-04-25 06:28 67.11090 -75.12990 34861 ft 371 kts 272°
2026-04-25 06:29 67.10869 -75.26118 34858 ft 371 kts 272°
2026-04-25 06:29 67.10635 -75.39351 34854 ft 371 kts 272°
2026-04-25 06:30 67.10390 -75.52566 34854 ft 370 kts 272°
2026-04-25 06:30 67.10134 -75.65760 34857 ft 370 kts 272°
2026-04-25 06:31 67.09870 -75.78848 34866 ft 370 kts 272°
2026-04-25 06:31 67.09593 -75.92027 34865 ft 369 kts 272°
2026-04-25 06:32 67.09309 -76.05029 34865 ft 370 kts 272°
2026-04-25 06:32 67.09013 -76.18108 34869 ft 370 kts 272°
2026-04-25 06:33 67.08704 -76.31273 34868 ft 370 kts 271°
2026-04-25 06:33 67.08383 -76.44435 34876 ft 370 kts 271°
2026-04-25 06:34 67.08053 -76.57591 34873 ft 369 kts 271°
2026-04-25 06:34 67.07712 -76.70716 34867 ft 369 kts 271°
2026-04-25 06:35 67.07363 -76.83735 34874 ft 368 kts 271°
2026-04-25 06:35 67.07001 -76.96834 34873 ft 368 kts 271°
2026-04-25 06:36 67.06634 -77.09753 34867 ft 368 kts 271°
2026-04-25 06:36 67.06251 -77.22829 34874 ft 368 kts 270°
2026-04-25 06:37 67.05859 -77.35899 34878 ft 368 kts 270°
2026-04-25 06:37 67.05457 -77.48867 34874 ft 367 kts 270°
2026-04-25 06:38 67.05043 -77.61932 34853 ft 368 kts 269°
2026-04-25 06:38 67.04616 -77.75051 34877 ft 372 kts 269°
2026-04-25 06:39 67.04174 -77.88292 34883 ft 375 kts 269°
2026-04-25 06:39 67.03726 -78.01383 34884 ft 377 kts 269°
2026-04-25 06:40 67.03255 -78.14775 34879 ft 378 kts 269°
2026-04-25 06:40 67.02773 -78.28190 34886 ft 378 kts 268°
2026-04-25 06:41 67.02280 -78.41581 34881 ft 377 kts 268°
2026-04-25 06:41 67.01782 -78.54813 34883 ft 375 kts 268°
2026-04-25 06:42 67.01272 -78.68066 34880 ft 374 kts 268°
2026-04-25 06:42 67.00756 -78.81275 34880 ft 373 kts 268°
2026-04-25 06:43 67.00224 -78.94438 34881 ft 372 kts 267°
2026-04-25 06:43 66.99273 -79.07246 34885 ft 377 kts 261°
2026-04-25 06:44 66.97920 -79.20166 34892 ft 377 kts 261°
2026-04-25 06:44 66.96560 -79.33098 34888 ft 377 kts 261°
2026-04-25 06:45 66.95206 -79.45923 34886 ft 377 kts 261°
2026-04-25 06:45 66.93834 -79.58829 34891 ft 377 kts 261°
2026-04-25 06:46 66.92452 -79.71726 34888 ft 377 kts 260°
2026-04-25 06:46 66.91059 -79.84611 34891 ft 377 kts 260°
2026-04-25 06:47 66.89655 -79.97493 34810 ft 378 kts 260°
2026-04-25 06:47 66.88266 -80.10141 34888 ft 379 kts 259°
2026-04-25 06:48 66.86827 -80.23120 34901 ft 382 kts 259°
2026-04-25 06:48 66.85368 -80.36166 34898 ft 385 kts 259°
2026-04-25 06:49 66.83889 -80.49281 34890 ft 387 kts 259°
2026-04-25 06:49 66.82405 -80.62322 34893 ft 388 kts 259°
2026-04-25 06:50 66.80897 -80.75456 34893 ft 388 kts 259°
2026-04-25 06:50 66.79380 -80.88560 34893 ft 387 kts 259°
2026-04-25 06:51 66.77876 -81.01453 34893 ft 386 kts 259°
2026-04-25 06:51 66.76355 -81.14384 34896 ft 385 kts 258°
2026-04-25 06:52 66.74819 -81.27332 34891 ft 384 kts 258°
2026-04-25 06:52 66.73277 -81.40234 34892 ft 383 kts 258°
2026-04-25 06:53 66.71728 -81.53087 34894 ft 382 kts 258°
2026-04-25 06:53 66.70180 -81.65836 34895 ft 382 kts 258°
2026-04-25 06:54 66.68611 -81.78653 34892 ft 382 kts 258°
2026-04-25 06:54 66.67029 -81.91486 34875 ft 385 kts 257°
2026-04-25 06:55 66.65437 -82.04299 34896 ft 390 kts 257°
2026-04-25 06:55 66.63809 -82.17281 34894 ft 392 kts 257°
2026-04-25 06:56 66.62151 -82.30389 34897 ft 393 kts 257°
2026-04-25 06:56 66.60482 -82.43487 34897 ft 393 kts 257°
2026-04-25 06:57 66.58805 -82.56543 34895 ft 392 kts 256°
2026-04-25 06:57 66.57135 -82.69448 34895 ft 390 kts 256°
2026-04-25 06:58 66.55449 -82.82379 34893 ft 389 kts 256°
2026-04-25 06:58 66.53757 -82.95260 34894 ft 388 kts 256°
2026-04-25 06:59 66.52079 -83.07937 34894 ft 387 kts 256°
2026-04-25 06:59 66.50385 -83.20644 34895 ft 387 kts 256°
2026-04-25 07:00 66.48668 -83.33421 34890 ft 387 kts 256°
2026-04-25 07:00 66.46942 -83.46176 34896 ft 387 kts 255°
2026-04-25 07:01 66.45203 -83.58933 34897 ft 388 kts 255°
2026-04-25 07:01 66.43450 -83.71705 34855 ft 389 kts 255°
2026-04-25 07:02 66.41691 -83.84417 34891 ft 391 kts 255°
2026-04-25 07:02 66.39897 -83.97291 34897 ft 394 kts 254°
2026-04-25 07:03 66.38106 -84.10046 34897 ft 396 kts 254°
2026-04-25 07:03 66.36272 -84.23010 34890 ft 397 kts 254°
2026-04-25 07:04 66.34435 -84.35903 34890 ft 398 kts 254°
2026-04-25 07:04 66.32574 -84.48864 34889 ft 397 kts 254°
2026-04-25 07:05 66.30708 -84.61771 34890 ft 396 kts 254°
2026-04-25 07:05 66.28838 -84.74613 34881 ft 395 kts 254°
2026-04-25 07:06 66.26972 -84.87337 34883 ft 394 kts 253°
2026-04-25 07:06 66.25090 -85.00080 34889 ft 394 kts 253°
2026-04-25 07:07 66.23217 -85.12680 34884 ft 393 kts 253°
2026-04-25 07:07 66.21317 -85.25372 34881 ft 393 kts 253°
2026-04-25 07:08 66.19418 -85.37967 34879 ft 393 kts 253°
2026-04-25 07:08 66.17495 -85.50635 34866 ft 395 kts 252°
2026-04-25 07:09 66.15541 -85.63423 34880 ft 400 kts 252°
2026-04-25 07:09 66.13554 -85.76331 34887 ft 404 kts 252°
2026-04-25 07:10 66.11557 -85.89214 34885 ft 406 kts 251°
2026-04-25 07:10 66.09554 -86.02035 34879 ft 406 kts 251°
2026-04-25 07:11 66.07519 -86.14977 34882 ft 404 kts 251°
2026-04-25 07:11 66.05484 -86.27831 34882 ft 402 kts 251°
2026-04-25 07:12 66.03458 -86.40543 34878 ft 401 kts 251°
2026-04-25 07:12 66.00397 -86.59597 34901 ft 399 kts 251°
2026-04-25 07:13 65.98349 -86.72234 34888 ft 398 kts 250°
2026-04-25 07:13 65.96295 -86.84826 34887 ft 397 kts 250°
2026-04-25 07:14 65.94248 -86.97290 34886 ft 397 kts 250°
2026-04-25 07:14 65.92203 -87.09662 34889 ft 397 kts 250°
2026-04-25 07:15 65.90123 -87.22169 34814 ft 398 kts 250°
2026-04-25 07:15 65.88014 -87.34773 34887 ft 403 kts 250°
2026-04-25 07:16 65.85879 -87.47438 34901 ft 407 kts 249°
2026-04-25 07:16 65.83705 -87.60252 34896 ft 409 kts 249°
2026-04-25 07:17 65.81516 -87.73068 34878 ft 409 kts 249°
2026-04-25 07:17 65.79315 -87.85866 34878 ft 409 kts 249°
2026-04-25 07:18 65.77128 -87.98502 34872 ft 407 kts 249°
2026-04-25 07:18 65.74953 -88.10997 34885 ft 406 kts 249°
2026-04-25 07:19 65.72743 -88.23602 34867 ft 405 kts 248°
2026-04-25 07:19 65.70543 -88.36078 34863 ft 404 kts 248°
2026-04-25 07:20 65.68321 -88.48595 34867 ft 404 kts 248°
2026-04-25 07:20 65.66091 -88.61082 34864 ft 404 kts 248°
2026-04-25 07:21 65.63849 -88.73554 34867 ft 404 kts 248°
2026-04-25 07:21 65.61596 -88.86008 34860 ft 404 kts 248°
2026-04-25 07:22 65.59330 -88.98461 34860 ft 405 kts 247°
2026-04-25 07:22 65.57087 -89.10704 34870 ft 408 kts 247°
2026-04-25 07:23 65.54773 -89.23262 34873 ft 411 kts 247°
2026-04-25 07:23 65.52437 -89.35863 34868 ft 413 kts 247°
2026-04-25 07:24 65.50078 -89.48500 34866 ft 414 kts 246°
2026-04-25 07:24 65.47722 -89.61048 34855 ft 414 kts 246°
2026-04-25 07:25 65.45339 -89.73662 34855 ft 414 kts 246°
2026-04-25 07:25 65.42949 -89.86232 34857 ft 413 kts 246°
2026-04-25 07:26 65.40556 -89.98741 34872 ft 412 kts 246°
2026-04-25 07:26 65.38204 -90.10965 34861 ft 411 kts 246°
2026-04-25 07:27 65.35797 -90.23394 34845 ft 410 kts 245°
2026-04-25 07:27 65.33389 -90.35756 34842 ft 409 kts 245°
2026-04-25 07:28 65.30973 -90.48082 34843 ft 409 kts 245°
2026-04-25 07:28 65.28564 -90.60304 34813 ft 411 kts 245°
2026-04-25 07:29 65.26105 -90.72704 34844 ft 416 kts 245°
2026-04-25 07:29 65.23603 -90.85245 34865 ft 420 kts 244°
2026-04-25 07:30 65.21076 -90.97834 34839 ft 421 kts 244°
2026-04-25 07:30 65.18571 -91.10236 34837 ft 421 kts 244°
2026-04-25 07:31 65.16047 -91.22662 34832 ft 419 kts 244°
2026-04-25 07:31 65.13505 -91.35100 34838 ft 417 kts 244°
2026-04-25 07:32 65.10964 -91.47462 34837 ft 416 kts 244°
2026-04-25 07:32 65.08419 -91.59771 34828 ft 415 kts 244°
2026-04-25 07:33 65.05886 -91.71952 34831 ft 414 kts 243°
2026-04-25 07:33 65.03334 -91.84168 34832 ft 414 kts 243°
2026-04-25 07:34 65.00776 -91.96379 34830 ft 414 kts 244°
2026-04-25 07:34 64.98771 -92.08922 34834 ft 415 kts 251°
2026-04-25 07:35 64.97060 -92.21853 34827 ft 416 kts 250°
2026-04-25 07:35 64.95293 -92.34867 34793 ft 417 kts 250°
2026-04-25 07:36 64.93503 -92.47929 34824 ft 420 kts 250°
2026-04-25 07:36 64.91691 -92.61064 34823 ft 423 kts 250°
2026-04-25 07:37 64.89869 -92.74183 34820 ft 425 kts 249°
2026-04-25 07:37 64.88018 -92.87414 34818 ft 426 kts 249°
2026-04-25 07:38 64.86176 -93.00486 34818 ft 426 kts 249°
2026-04-25 07:38 64.84618 -93.11459 34817 ft 425 kts 249°
2026-04-25 07:39 64.82431 -93.26750 34819 ft 424 kts 249°
2026-04-25 07:39 64.80540 -93.39863 34818 ft 424 kts 248°
2026-04-25 07:40 64.78637 -93.52954 34822 ft 424 kts 248°
2026-04-25 07:40 64.77049 -93.63811 34819 ft 424 kts 248°
2026-04-25 07:41 64.75127 -93.76855 34818 ft 424 kts 248°
2026-04-25 07:41 64.72879 -93.91993 34818 ft 424 kts 248°
2026-04-25 07:42 64.71290 -94.02621 34820 ft 424 kts 248°
2026-04-25 07:42 64.69335 -94.15606 34829 ft 424 kts 247°
2026-04-25 07:43 64.67364 -94.28601 34816 ft 424 kts 247°
2026-04-25 07:43 64.65063 -94.43657 34818 ft 424 kts 247°
2026-04-25 07:44 64.63405 -94.54426 34818 ft 424 kts 247°
2026-04-25 07:44 64.61404 -94.67345 34821 ft 424 kts 247°
2026-04-25 07:45 64.59390 -94.80247 34817 ft 424 kts 247°
2026-04-25 07:45 64.57366 -94.93134 34820 ft 424 kts 246°
2026-04-25 07:46 64.55372 -95.05732 34816 ft 424 kts 246°
2026-04-25 07:46 64.53326 -95.18572 34820 ft 424 kts 246°
2026-04-25 07:47 64.51268 -95.31400 34814 ft 424 kts 246°
2026-04-25 07:47 64.49199 -95.44208 34817 ft 424 kts 246°
2026-04-25 07:48 64.47120 -95.56987 34816 ft 423 kts 246°
2026-04-25 07:48 64.45045 -95.69657 34807 ft 424 kts 245°
2026-04-25 07:49 64.42940 -95.82423 34795 ft 424 kts 245°
2026-04-25 07:49 64.40824 -95.95161 34790 ft 424 kts 245°
2026-04-25 07:50 64.38724 -96.07725 34784 ft 424 kts 245°
2026-04-25 07:50 64.36600 -96.20351 34786 ft 424 kts 245°
2026-04-25 07:51 64.34452 -96.33035 34790 ft 424 kts 245°
2026-04-25 07:51 64.32292 -96.45710 34795 ft 425 kts 244°
2026-04-25 07:52 64.30117 -96.58377 34804 ft 425 kts 244°
2026-04-25 07:52 64.27933 -96.71016 34796 ft 425 kts 244°
2026-04-25 07:53 64.25749 -96.83575 34797 ft 425 kts 244°
2026-04-25 07:53 64.23538 -96.96202 34797 ft 426 kts 244°
2026-04-25 07:54 64.21347 -97.08640 34790 ft 426 kts 244°
2026-04-25 07:54 64.19117 -97.21220 34792 ft 426 kts 244°
2026-04-25 07:55 64.16887 -97.33714 34764 ft 427 kts 243°
2026-04-25 07:55 64.14613 -97.46366 34780 ft 432 kts 243°
2026-04-25 07:56 64.12308 -97.59114 34780 ft 434 kts 243°
2026-04-25 07:56 64.09984 -97.71889 34778 ft 435 kts 243°
2026-04-25 07:57 64.07665 -97.84559 34774 ft 435 kts 243°
2026-04-25 07:57 64.05323 -97.97272 34770 ft 434 kts 242°
2026-04-25 07:58 64.03007 -98.09760 34769 ft 432 kts 242°
2026-04-25 07:58 64.00654 -98.22364 34763 ft 431 kts 242°
2026-04-25 07:59 63.98307 -98.34856 34761 ft 430 kts 242°
2026-04-25 07:59 63.95959 -98.47279 34761 ft 429 kts 242°
2026-04-25 08:00 63.93589 -98.59738 34758 ft 429 kts 242°
2026-04-25 08:00 63.91209 -98.72173 34759 ft 429 kts 241°
2026-04-25 08:01 63.88829 -98.84531 34755 ft 431 kts 241°
2026-04-25 08:01 63.86417 -98.96982 34755 ft 432 kts 241°
2026-04-25 08:02 63.84019 -99.09285 34750 ft 433 kts 241°
2026-04-25 08:02 63.81573 -99.21760 34748 ft 433 kts 241°
2026-04-25 08:03 63.79116 -99.34214 34745 ft 434 kts 241°
2026-04-25 08:03 63.76659 -99.46588 34745 ft 435 kts 240°
2026-04-25 08:04 63.74172 -99.59042 34746 ft 435 kts 240°
2026-04-25 08:04 63.71673 -99.71483 34714 ft 436 kts 239°
2026-04-25 08:05 63.69151 -99.83951 34737 ft 438 kts 239°
2026-04-25 08:05 63.66606 -99.96459 34735 ft 441 kts 239°
2026-04-25 08:06 63.64087 -100.08768 34747 ft 442 kts 239°
2026-04-25 08:06 63.61496 -100.21358 34733 ft 444 kts 239°
2026-04-25 08:07 63.58888 -100.33953 34725 ft 445 kts 239°
2026-04-25 08:07 63.56267 -100.46535 34720 ft 445 kts 239°
2026-04-25 08:08 63.53656 -100.58996 34722 ft 444 kts 239°
2026-04-25 08:08 63.51021 -100.71491 34717 ft 443 kts 239°
2026-04-25 08:09 63.48378 -100.83953 34729 ft 443 kts 238°
2026-04-25 08:09 63.45726 -100.96378 34718 ft 443 kts 238°
2026-04-25 08:10 63.43115 -101.08541 34709 ft 443 kts 238°
2026-04-25 08:10 63.40437 -101.20945 34706 ft 443 kts 238°
2026-04-25 08:11 63.37749 -101.33325 34714 ft 444 kts 238°
2026-04-25 08:11 63.35046 -101.45696 34700 ft 444 kts 238°
2026-04-25 08:12 63.32353 -101.57953 34711 ft 445 kts 237°
2026-04-25 08:12 63.29622 -101.70312 34699 ft 445 kts 237°
2026-04-25 08:13 63.26877 -101.82664 34700 ft 446 kts 237°
2026-04-25 08:14 63.22766 -102.01026 34673 ft 448 kts 237°
2026-04-25 08:14 63.19983 -102.13361 34693 ft 453 kts 237°
2026-04-25 08:15 63.17147 -102.25863 34686 ft 456 kts 237°
2026-04-25 08:15 63.14287 -102.38406 34688 ft 457 kts 236°
2026-04-25 08:16 63.11408 -102.50961 34683 ft 458 kts 236°
2026-04-25 08:16 63.08542 -102.63385 34682 ft 457 kts 236°
2026-04-25 08:17 63.05652 -102.75839 34683 ft 455 kts 236°
2026-04-25 08:17 63.02759 -102.88246 34695 ft 454 kts 236°
2026-04-25 08:18 62.99889 -103.00410 34680 ft 453 kts 234°
2026-04-25 08:18 62.96723 -103.12196 34674 ft 450 kts 232°
2026-04-25 08:19 62.93475 -103.23967 34672 ft 450 kts 232°
2026-04-25 08:19 62.90224 -103.35723 34666 ft 451 kts 232°
2026-04-25 08:20 62.86971 -103.47477 34667 ft 451 kts 232°
2026-04-25 08:20 62.83733 -103.59138 34668 ft 452 kts 231°
2026-04-25 08:21 62.80456 -103.70874 34661 ft 453 kts 231°
2026-04-25 08:21 62.77164 -103.82606 34653 ft 453 kts 231°
2026-04-25 08:22 62.73857 -103.94328 34641 ft 454 kts 231°
2026-04-25 08:22 62.70572 -104.05910 34644 ft 456 kts 231°
2026-04-25 08:23 62.67252 -104.17558 34644 ft 457 kts 231°
2026-04-25 08:23 62.63886 -104.29307 34635 ft 458 kts 231°
2026-04-25 08:24 62.60508 -104.41036 34636 ft 458 kts 231°
2026-04-25 08:24 62.57118 -104.52750 34638 ft 458 kts 231°
2026-04-25 08:25 62.53742 -104.64351 34635 ft 458 kts 230°
2026-04-25 08:25 62.50336 -104.75999 34634 ft 457 kts 230°
2026-04-25 08:26 62.46923 -104.87609 34633 ft 458 kts 230°
2026-04-25 08:26 62.43500 -104.99193 34627 ft 458 kts 230°
2026-04-25 08:27 62.40131 -105.10537 34621 ft 458 kts 230°
2026-04-25 08:27 62.36684 -105.22084 34620 ft 458 kts 230°
2026-04-25 08:28 62.33228 -105.33605 34626 ft 458 kts 229°
2026-04-25 08:28 62.29761 -105.45104 34619 ft 458 kts 229°
2026-04-25 08:29 62.26302 -105.56515 34626 ft 459 kts 229°
2026-04-25 08:29 62.22792 -105.68030 34606 ft 464 kts 229°
2026-04-25 08:30 62.19232 -105.79652 34611 ft 468 kts 229°
2026-04-25 08:30 62.15648 -105.91306 34605 ft 470 kts 229°
2026-04-25 08:31 62.12090 -106.02819 34600 ft 470 kts 229°
2026-04-25 08:31 62.08505 -106.14361 34610 ft 470 kts 229°
2026-04-25 08:32 62.04877 -106.25975 34589 ft 470 kts 229°
2026-04-25 08:32 62.01244 -106.37544 34589 ft 470 kts 229°
2026-04-25 08:33 61.97613 -106.49053 34584 ft 469 kts 229°
2026-04-25 08:33 61.93992 -106.60471 34582 ft 469 kts 229°
2026-04-25 08:34 61.90340 -106.71928 34618 ft 469 kts 230°
2026-04-25 08:34 61.86664 -106.83400 34581 ft 472 kts 230°
2026-04-25 08:35 61.82958 -106.94910 34571 ft 474 kts 230°
2026-04-25 08:35 61.79297 -107.06223 34569 ft 476 kts 229°
2026-04-25 08:36 61.75541 -107.17778 34566 ft 477 kts 229°
2026-04-25 08:36 61.71769 -107.29325 34563 ft 478 kts 229°
2026-04-25 08:37 61.67972 -107.40885 34572 ft 482 kts 230°
2026-04-25 08:37 61.64164 -107.52416 34562 ft 485 kts 230°
2026-04-25 08:38 61.60300 -107.64065 34551 ft 487 kts 230°
2026-04-25 08:38 61.56412 -107.75728 34555 ft 488 kts 230°
2026-04-25 08:39 61.52508 -107.87381 34552 ft 488 kts 230°
2026-04-25 08:39 61.48621 -107.98920 34565 ft 489 kts 230°
2026-04-25 08:40 61.44737 -108.10395 34551 ft 490 kts 230°
2026-04-25 08:40 61.40786 -108.22011 34542 ft 491 kts 230°
2026-04-25 08:41 61.36818 -108.33616 34536 ft 491 kts 230°
2026-04-25 08:41 61.32868 -108.45112 34540 ft 491 kts 230°
2026-04-25 08:42 61.28877 -108.56670 34536 ft 492 kts 231°
2026-04-25 08:42 61.24863 -108.68235 34534 ft 494 kts 230°
2026-04-25 08:43 61.20857 -108.79720 34521 ft 496 kts 231°
2026-04-25 08:43 61.16798 -108.91297 34522 ft 497 kts 231°
2026-04-25 08:44 61.12763 -109.02748 34522 ft 499 kts 230°
2026-04-25 08:44 61.08659 -109.14340 34514 ft 501 kts 231°
2026-04-25 08:45 61.04527 -109.25953 34514 ft 502 kts 231°
2026-04-25 08:45 61.00411 -109.37466 34508 ft 502 kts 231°
2026-04-25 08:46 60.96261 -109.49012 34497 ft 502 kts 231°
2026-04-25 08:46 60.92097 -109.60540 34497 ft 502 kts 230°
2026-04-25 08:47 60.87923 -109.72037 34487 ft 502 kts 231°
2026-04-25 08:47 60.83773 -109.83411 34485 ft 501 kts 231°
2026-04-25 08:48 60.79587 -109.94831 34469 ft 501 kts 231°
2026-04-25 08:48 60.75452 -110.06056 34469 ft 501 kts 231°
2026-04-25 08:49 60.71249 -110.17407 34470 ft 500 kts 231°
2026-04-25 08:49 60.67067 -110.28649 34480 ft 502 kts 231°
2026-04-25 08:50 60.62830 -110.39983 34474 ft 503 kts 231°
2026-04-25 08:50 60.58573 -110.51314 34456 ft 505 kts 230°
2026-04-25 08:51 60.54297 -110.62642 34459 ft 505 kts 230°
2026-04-25 08:51 60.50033 -110.73883 34466 ft 506 kts 231°
2026-04-25 08:52 60.45727 -110.85179 34463 ft 506 kts 231°
2026-04-25 08:52 60.41410 -110.96449 34445 ft 507 kts 231°
2026-04-25 08:53 60.37140 -111.07545 34448 ft 506 kts 231°
2026-04-25 08:53 60.32805 -111.18753 34457 ft 506 kts 230°
2026-04-25 08:54 60.28494 -111.29847 34465 ft 506 kts 231°
2026-04-25 08:54 60.24143 -111.40988 34446 ft 506 kts 230°
2026-04-25 08:55 60.19788 -111.52089 34440 ft 505 kts 230°
2026-04-25 08:55 60.15423 -111.63163 34424 ft 505 kts 230°
2026-04-25 08:56 60.11078 -111.74135 34406 ft 506 kts 230°
2026-04-25 08:56 60.06684 -111.85183 34395 ft 507 kts 231°
2026-04-25 08:57 60.02203 -111.96079 34398 ft 507 kts 226°
2026-04-25 08:57 59.97071 -112.05380 34404 ft 505 kts 218°
2026-04-25 08:58 59.91619 -112.14264 34404 ft 506 kts 218°
2026-04-25 08:58 59.86218 -112.23104 34418 ft 506 kts 218°
2026-04-25 08:59 59.80791 -112.32027 34439 ft 506 kts 219°
2026-04-25 08:59 59.75361 -112.40951 34436 ft 506 kts 219°
2026-04-25 09:00 59.69929 -112.49838 34440 ft 506 kts 219°
2026-04-25 09:00 59.64528 -112.58629 34438 ft 506 kts 218°
2026-04-25 09:01 59.59089 -112.67440 34435 ft 506 kts 218°
2026-04-25 09:01 59.53641 -112.76225 34434 ft 506 kts 219°
2026-04-25 09:02 59.48200 -112.84967 34425 ft 505 kts 219°
2026-04-25 09:02 59.42784 -112.93631 34417 ft 505 kts 219°
2026-04-25 09:03 59.37405 -113.02196 34416 ft 504 kts 218°
2026-04-25 09:03 59.31950 -113.10848 34418 ft 505 kts 218°
2026-04-25 09:04 59.26490 -113.19465 34418 ft 504 kts 219°
2026-04-25 09:04 59.21056 -113.28012 34415 ft 505 kts 219°
2026-04-25 09:05 59.15570 -113.36604 34414 ft 506 kts 218°
2026-04-25 09:05 59.10070 -113.45182 34410 ft 507 kts 218°
2026-04-25 09:06 59.04553 -113.53746 34400 ft 508 kts 218°
2026-04-25 09:06 58.99029 -113.62286 34395 ft 509 kts 219°
2026-04-25 09:07 58.93508 -113.70785 34401 ft 511 kts 219°
2026-04-25 09:07 58.87940 -113.79320 34393 ft 510 kts 219°
2026-04-25 09:08 58.82371 -113.87824 34383 ft 510 kts 218°
2026-04-25 09:08 58.76801 -113.96293 34393 ft 509 kts 218°
2026-04-25 09:09 58.71310 -114.04603 34384 ft 509 kts 218°
2026-04-25 09:09 58.65779 -114.12942 34383 ft 508 kts 218°
2026-04-25 09:10 58.60213 -114.21299 34381 ft 508 kts 218°
2026-04-25 09:10 58.54638 -114.29634 34380 ft 508 kts 218°
2026-04-25 09:11 58.46264 -114.42089 34379 ft 509 kts 218°
2026-04-25 09:11 58.40700 -114.50323 34390 ft 511 kts 218°
2026-04-25 09:12 58.35061 -114.58634 34395 ft 514 kts 218°
2026-04-25 09:12 58.29393 -114.66952 34380 ft 515 kts 218°
2026-04-25 09:13 58.23715 -114.75249 34381 ft 515 kts 218°
2026-04-25 09:13 58.18067 -114.83469 34386 ft 515 kts 218°
2026-04-25 09:14 58.12382 -114.91709 34380 ft 514 kts 218°
2026-04-25 09:14 58.06700 -114.99911 34389 ft 514 kts 218°
2026-04-25 09:15 58.01091 -115.07975 34387 ft 513 kts 218°
2026-04-25 09:15 57.95452 -115.16048 34384 ft 513 kts 217°
2026-04-25 09:16 57.89761 -115.24163 34394 ft 514 kts 217°
2026-04-25 09:16 57.84043 -115.32284 34376 ft 516 kts 217°
2026-04-25 09:17 57.75424 -115.44461 34372 ft 518 kts 217°
2026-04-25 09:18 57.69659 -115.52567 34387 ft 519 kts 217°
2026-04-25 09:18 57.63914 -115.60607 34364 ft 520 kts 218°
2026-04-25 09:19 57.58111 -115.68700 34382 ft 521 kts 218°
2026-04-25 09:19 57.52291 -115.76783 34383 ft 522 kts 217°
2026-04-25 09:20 57.46455 -115.84853 34373 ft 523 kts 217°
2026-04-25 09:20 57.40648 -115.92852 34376 ft 523 kts 217°
2026-04-25 09:21 57.34873 -116.00775 34367 ft 523 kts 217°
2026-04-25 09:21 57.29019 -116.08774 34365 ft 523 kts 217°
2026-04-25 09:22 57.23156 -116.16752 34364 ft 523 kts 217°
2026-04-25 09:22 57.17329 -116.24650 34384 ft 523 kts 217°
2026-04-25 09:23 57.11460 -116.32572 34359 ft 523 kts 217°
2026-04-25 09:23 57.05575 -116.40487 34366 ft 525 kts 217°
2026-04-25 09:24 56.99663 -116.48404 34367 ft 527 kts 217°
2026-04-25 09:24 56.93734 -116.56309 34363 ft 528 kts 217°
2026-04-25 09:25 56.87829 -116.64154 34363 ft 528 kts 217°
2026-04-25 09:25 56.81871 -116.72036 34344 ft 529 kts 217°
2026-04-25 09:26 56.75906 -116.79897 34359 ft 530 kts 217°
2026-04-25 09:26 56.69923 -116.87751 34345 ft 530 kts 217°
2026-04-25 09:27 56.63972 -116.95531 34367 ft 531 kts 216°
2026-04-25 09:27 56.58051 -117.03242 34348 ft 531 kts 216°
2026-04-25 09:28 56.52044 -117.11034 34339 ft 531 kts 217°
2026-04-25 09:28 56.46022 -117.18811 34339 ft 532 kts 217°
2026-04-25 09:29 56.39985 -117.26580 34334 ft 533 kts 217°
2026-04-25 09:29 56.33988 -117.34268 34337 ft 533 kts 217°
2026-04-25 09:30 56.27933 -117.42001 34316 ft 534 kts 217°
2026-04-25 09:30 56.21868 -117.49718 34252 ft 535 kts 217°
2026-04-25 09:31 56.16069 -117.58056 34249 ft 534 kts 222°
2026-04-25 09:31 56.10419 -117.66712 34262 ft 535 kts 222°
2026-04-25 09:32 56.04789 -117.75277 34260 ft 535 kts 222°
2026-04-25 09:32 55.99099 -117.83841 34322 ft 535 kts 221°
2026-04-25 09:33 55.93393 -117.92375 34327 ft 535 kts 221°
2026-04-25 09:33 55.87753 -118.00779 34317 ft 536 kts 221°
2026-04-25 09:34 55.82070 -118.09218 34330 ft 536 kts 221°
2026-04-25 09:34 55.76338 -118.17699 34326 ft 537 kts 221°
2026-04-25 09:35 55.70585 -118.26176 34325 ft 538 kts 221°
2026-04-25 09:35 55.64816 -118.34642 34324 ft 538 kts 221°
2026-04-25 09:36 55.59090 -118.43012 34333 ft 538 kts 221°
2026-04-25 09:36 55.53318 -118.51416 34326 ft 537 kts 221°
2026-04-25 09:37 55.47546 -118.59789 34329 ft 537 kts 221°
2026-04-25 09:37 55.41769 -118.68136 34298 ft 537 kts 221°
2026-04-25 09:38 55.36028 -118.76400 34269 ft 537 kts 220°
2026-04-25 09:38 55.30243 -118.84693 34248 ft 536 kts 220°
2026-04-25 09:39 55.24457 -118.92959 34245 ft 537 kts 220°
2026-04-25 09:39 55.18730 -119.01111 34241 ft 538 kts 220°
2026-04-25 09:40 55.13144 -119.09793 34343 ft 538 kts 225°
2026-04-25 09:40 55.10452 -119.14210 34340 ft 538 kts 225°
2026-04-25 09:40 55.04994 -119.23174 34326 ft 540 kts 225°
2026-04-25 09:41 54.99511 -119.32099 34334 ft 542 kts 225°
2026-04-25 09:41 54.93975 -119.41035 34335 ft 544 kts 225°
2026-04-25 09:42 54.88415 -119.49965 34332 ft 545 kts 225°
2026-04-25 09:42 54.82872 -119.58836 34320 ft 547 kts 225°
2026-04-25 09:43 54.77266 -119.67776 34372 ft 548 kts 224°
2026-04-25 09:43 54.71647 -119.76702 34341 ft 548 kts 224°
2026-04-25 09:44 54.66039 -119.85574 34330 ft 546 kts 224°
2026-04-25 09:44 54.60480 -119.94333 34326 ft 544 kts 224°
2026-04-25 09:45 54.54959 -120.03003 34323 ft 544 kts 224°
2026-04-25 09:45 54.49354 -120.11770 34313 ft 545 kts 224°
2026-04-25 09:46 54.43731 -120.20531 34321 ft 546 kts 224°
2026-04-25 09:46 54.38121 -120.29238 34296 ft 549 kts 224°
2026-04-25 09:47 54.32421 -120.38056 34290 ft 553 kts 224°
2026-04-25 09:47 54.26684 -120.46886 34351 ft 555 kts 224°
2026-04-25 09:48 54.20991 -120.55612 34291 ft 544 kts 224°
2026-04-25 09:48 54.15363 -120.64211 34266 ft 550 kts 224°
2026-04-25 09:49 54.09627 -120.72951 34295 ft 557 kts 224°
2026-04-25 09:49 54.03832 -120.81740 34286 ft 559 kts 224°
2026-04-25 09:50 53.98012 -120.90526 34260 ft 560 kts 224°
2026-04-25 09:50 53.92193 -120.99282 34277 ft 565 kts 224°
2026-04-25 09:51 53.86364 -121.08014 34285 ft 568 kts 224°
2026-04-25 09:51 53.80430 -121.16873 34254 ft 569 kts 224°
2026-04-25 09:52 53.74493 -121.25701 34272 ft 568 kts 223°
2026-04-25 09:52 53.68617 -121.34402 34248 ft 564 kts 223°
2026-04-25 09:53 53.62729 -121.43092 34230 ft 561 kts 223°
2026-04-25 09:53 53.56852 -121.51730 34235 ft 560 kts 223°
2026-04-25 09:54 53.50975 -121.60337 34216 ft 561 kts 223°
2026-04-25 09:54 53.45110 -121.68891 34224 ft 564 kts 223°
2026-04-25 09:55 53.39173 -121.77518 34220 ft 566 kts 223°
2026-04-25 09:55 53.33202 -121.86162 34218 ft 569 kts 223°
2026-04-25 09:56 53.27200 -121.94818 34220 ft 570 kts 223°
2026-04-25 09:56 53.21318 -122.03263 34216 ft 557 kts 222°
2026-04-25 09:57 53.15495 -122.11594 34210 ft 556 kts 222°
2026-04-25 09:57 53.09616 -122.19979 34157 ft 558 kts 222°
2026-04-25 09:58 53.03704 -122.28379 34175 ft 560 kts 222°
2026-04-25 09:58 52.97758 -122.36793 34181 ft 563 kts 222°
2026-04-25 09:59 52.91823 -122.45161 34183 ft 565 kts 221°
2026-04-25 09:59 52.85828 -122.53580 34167 ft 566 kts 222°
2026-04-25 10:00 52.79813 -122.61997 34185 ft 567 kts 222°
2026-04-25 10:00 52.73776 -122.70413 34229 ft 568 kts 221°
2026-04-25 10:01 52.67844 -122.78652 34191 ft 557 kts 221°
2026-04-25 10:01 52.61906 -122.86867 34206 ft 560 kts 221°
2026-04-25 10:02 52.55912 -122.95134 34210 ft 564 kts 221°
2026-04-25 10:02 52.49955 -123.03316 34205 ft 567 kts 221°
2026-04-25 10:03 52.43934 -123.11556 34191 ft 568 kts 221°
2026-04-25 10:03 52.37846 -123.19858 34217 ft 570 kts 221°
2026-04-25 10:04 52.31735 -123.28159 34220 ft 572 kts 221°
2026-04-25 10:04 52.25651 -123.36392 34220 ft 572 kts 221°
2026-04-25 10:05 52.19552 -123.44616 34218 ft 566 kts 221°
2026-04-25 10:05 52.13482 -123.52770 34233 ft 567 kts 221°
2026-04-25 10:06 52.07381 -123.60938 34232 ft 568 kts 221°
2026-04-25 10:06 52.01262 -123.69100 34230 ft 570 kts 221°
2026-04-25 10:07 51.95177 -123.77188 34250 ft 571 kts 221°
2026-04-25 10:07 51.89009 -123.85354 34218 ft 574 kts 221°
2026-04-25 10:08 51.82813 -123.93526 34231 ft 575 kts 221°
2026-04-25 10:08 51.76725 -124.01530 34213 ft 576 kts 221°
2026-04-25 10:09 51.70505 -124.09677 34229 ft 576 kts 220°
2026-04-25 10:09 51.64282 -124.17794 34224 ft 575 kts 220°
2026-04-25 10:10 51.58065 -124.25878 34209 ft 574 kts 220°
2026-04-25 10:10 51.51866 -124.33910 34199 ft 571 kts 220°
2026-04-25 10:11 51.45729 -124.41835 34199 ft 569 kts 220°
2026-04-25 10:11 51.39556 -124.49771 34194 ft 569 kts 220°
2026-04-25 10:12 51.33377 -124.57693 34126 ft 569 kts 220°
2026-04-25 10:13 51.24141 -124.69480 34233 ft 564 kts 220°
2026-04-25 10:13 51.18050 -124.77221 34166 ft 563 kts 220°
2026-04-25 10:14 51.11932 -124.84965 34156 ft 560 kts 220°
2026-04-25 10:14 51.05822 -124.92678 34136 ft 561 kts 220°
2026-04-25 10:15 50.99840 -125.00364 34124 ft 560 kts 223°
2026-04-25 10:15 50.94440 -125.09123 34101 ft 558 kts 229°
2026-04-25 10:16 50.89181 -125.18148 34113 ft 556 kts 230°
2026-04-25 10:16 50.83910 -125.27096 34103 ft 555 kts 230°
2026-04-25 10:17 50.78608 -125.35983 34095 ft 556 kts 230°
2026-04-25 10:17 50.73319 -125.44804 34082 ft 557 kts 229°
2026-04-25 10:18 50.67981 -125.53660 34055 ft 557 kts 229°
2026-04-25 10:18 50.62634 -125.62493 34097 ft 558 kts 230°
2026-04-25 10:19 50.57260 -125.71373 34098 ft 562 kts 230°
2026-04-25 10:19 50.51893 -125.80201 34061 ft 562 kts 230°
2026-04-25 10:20 50.46480 -125.89065 34084 ft 563 kts 229°
2026-04-25 10:20 50.41053 -125.97921 34079 ft 563 kts 229°
2026-04-25 10:21 50.35685 -126.06652 34063 ft 564 kts 229°
2026-04-25 10:21 50.30268 -126.15434 34077 ft 564 kts 229°
2026-04-25 10:22 50.24810 -126.24251 34082 ft 564 kts 229°
2026-04-25 10:22 50.19341 -126.33056 34029 ft 564 kts 229°
2026-04-25 10:23 50.13893 -126.41793 34079 ft 561 kts 229°
2026-04-25 10:23 50.08497 -126.50417 34053 ft 558 kts 228°
2026-04-25 10:24 50.03078 -126.59048 34073 ft 556 kts 228°
2026-04-25 10:24 49.97679 -126.67620 34050 ft 554 kts 228°
2026-04-25 10:25 49.92295 -126.76144 34049 ft 552 kts 228°
2026-04-25 10:25 49.86953 -126.84571 34047 ft 551 kts 228°
2026-04-25 10:26 49.81580 -126.93009 34029 ft 549 kts 227°
2026-04-25 10:26 49.76283 -127.01304 34028 ft 548 kts 227°
2026-04-25 10:27 49.70921 -127.09676 34027 ft 548 kts 227°
2026-04-25 10:27 49.65596 -127.17964 34031 ft 547 kts 227°
2026-04-25 10:28 49.60231 -127.26283 34027 ft 546 kts 227°
2026-04-25 10:28 49.54875 -127.34562 34028 ft 545 kts 227°
2026-04-25 10:29 49.49553 -127.42762 34035 ft 545 kts 227°
2026-04-25 10:29 49.44190 -127.50998 34032 ft 544 kts 226°
2026-04-25 10:30 49.38832 -127.59198 34040 ft 543 kts 226°
2026-04-25 10:30 49.33478 -127.67367 34046 ft 543 kts 226°
2026-04-25 10:31 49.28157 -127.75456 34059 ft 543 kts 227°
2026-04-25 10:31 49.22787 -127.83598 34054 ft 543 kts 227°
2026-04-25 10:32 49.17411 -127.91722 34054 ft 543 kts 226°
2026-04-25 10:32 49.12026 -127.99832 34050 ft 544 kts 226°
2026-04-25 10:33 49.06746 -128.07758 34062 ft 542 kts 226°
2026-04-25 10:33 49.01369 -128.15803 34060 ft 541 kts 226°
2026-04-25 10:34 48.96008 -128.23801 34066 ft 540 kts 226°
2026-04-25 10:34 48.90646 -128.31773 34047 ft 538 kts 226°
2026-04-25 10:35 48.85302 -128.39695 34062 ft 536 kts 226°
2026-04-25 10:35 48.79998 -128.47532 34072 ft 535 kts 226°
2026-04-25 10:36 48.74661 -128.55395 34069 ft 535 kts 225°
2026-04-25 10:36 48.69331 -128.63220 34083 ft 533 kts 225°
2026-04-25 10:37 48.64900 -128.69707 34086 ft 533 kts 225°
2026-04-25 10:37 48.58702 -128.78755 34093 ft 533 kts 225°
2026-04-25 10:38 48.53372 -128.86511 34093 ft 532 kts 225°
2026-04-25 10:38 48.48943 -128.92937 34096 ft 531 kts 225°
2026-04-25 10:39 48.43698 -129.00524 34101 ft 530 kts 225°
2026-04-25 10:39 48.38381 -129.08194 34091 ft 529 kts 225°
2026-04-25 10:40 48.32204 -129.17072 34104 ft 527 kts 224°
2026-04-25 10:40 48.27770 -129.23428 34112 ft 526 kts 224°
2026-04-25 10:41 48.22517 -129.30936 34117 ft 524 kts 224°
2026-04-25 10:41 48.17239 -129.38458 34115 ft 522 kts 224°
2026-04-25 10:42 48.11983 -129.45925 34117 ft 520 kts 224°
2026-04-25 10:42 48.06737 -129.53357 34126 ft 519 kts 224°
2026-04-25 10:43 48.01535 -129.60705 34127 ft 517 kts 224°
2026-04-25 10:43 47.96310 -129.68063 34131 ft 517 kts 224°
2026-04-25 10:44 47.91079 -129.75410 34138 ft 516 kts 224°
2026-04-25 10:44 47.85854 -129.82725 34141 ft 515 kts 224°
2026-04-25 10:45 47.80660 -129.89977 34142 ft 515 kts 224°
2026-04-25 10:45 47.75437 -129.97248 34145 ft 514 kts 223°
2026-04-25 10:46 47.70276 -130.04413 34143 ft 515 kts 223°
2026-04-25 10:46 47.65035 -130.11665 34149 ft 515 kts 223°
2026-04-25 10:47 47.59786 -130.18910 34152 ft 515 kts 223°
2026-04-25 10:47 47.54572 -130.26087 34153 ft 515 kts 223°
2026-04-25 10:48 47.49316 -130.33299 34153 ft 515 kts 223°
2026-04-25 10:48 47.44062 -130.40488 34160 ft 515 kts 223°
2026-04-25 10:49 47.38799 -130.47671 34159 ft 515 kts 223°
2026-04-25 10:49 47.33568 -130.54787 34163 ft 515 kts 223°
2026-04-25 10:50 47.28300 -130.61936 34160 ft 515 kts 223°
2026-04-25 10:50 47.23029 -130.69067 34166 ft 514 kts 223°
2026-04-25 10:51 47.17754 -130.76184 34165 ft 515 kts 223°
2026-04-25 10:51 47.12502 -130.83251 34171 ft 515 kts 222°
2026-04-25 10:52 47.07217 -130.90344 34177 ft 515 kts 222°
2026-04-25 10:52 47.01928 -130.97423 34181 ft 514 kts 222°
2026-04-25 10:53 46.96745 -131.04403 34173 ft 513 kts 223°
2026-04-25 10:53 46.91552 -131.11560 34178 ft 513 kts 223°
2026-04-25 10:54 46.86405 -131.18664 34185 ft 512 kts 223°
2026-04-25 10:54 46.81218 -131.25779 34188 ft 511 kts 223°
2026-04-25 10:55 46.76020 -131.32871 34194 ft 512 kts 223°
2026-04-25 10:55 46.70804 -131.39965 34190 ft 513 kts 223°
2026-04-25 10:56 46.65570 -131.47065 34197 ft 515 kts 223°
2026-04-25 10:56 46.60367 -131.54105 34197 ft 512 kts 223°
2026-04-25 10:57 46.55163 -131.61127 34201 ft 509 kts 223°
2026-04-25 10:57 46.49976 -131.68108 34202 ft 509 kts 223°
2026-04-25 10:58 46.44811 -131.75040 34206 ft 510 kts 223°
2026-04-25 10:58 46.39603 -131.82009 34211 ft 509 kts 223°
2026-04-25 10:59 46.34398 -131.88959 34204 ft 508 kts 223°
2026-04-25 10:59 46.29211 -131.95863 34209 ft 506 kts 223°
2026-04-25 11:00 46.24096 -132.02650 34213 ft 506 kts 223°
2026-04-25 11:00 46.18944 -132.09475 34221 ft 506 kts 223°
2026-04-25 11:01 46.13748 -132.16336 34218 ft 507 kts 223°
2026-04-25 11:01 46.08534 -132.23203 34216 ft 508 kts 223°
2026-04-25 11:02 46.03323 -132.30047 34228 ft 506 kts 223°
2026-04-25 11:02 45.98170 -132.36800 34222 ft 505 kts 223°
2026-04-25 11:03 45.92979 -132.43583 34224 ft 505 kts 223°
2026-04-25 11:03 45.87775 -132.50364 34225 ft 505 kts 223°
2026-04-25 11:04 45.82561 -132.57142 34229 ft 507 kts 223°
2026-04-25 11:04 45.77364 -132.63874 34232 ft 507 kts 223°
2026-04-25 11:05 45.72137 -132.70631 34235 ft 506 kts 223°
2026-04-25 11:05 45.66916 -132.77363 34235 ft 504 kts 222°
2026-04-25 11:06 45.61704 -132.84067 34232 ft 504 kts 222°
2026-04-25 11:06 45.56489 -132.90757 34237 ft 504 kts 222°
2026-04-25 11:07 45.51306 -132.97388 34234 ft 504 kts 222°
2026-04-25 11:07 45.46161 -133.03953 34233 ft 503 kts 222°
2026-04-25 11:08 45.40946 -133.10590 34234 ft 502 kts 222°
2026-04-25 11:08 45.35779 -133.17154 34238 ft 501 kts 222°
2026-04-25 11:09 45.30568 -133.23752 34241 ft 501 kts 222°
2026-04-25 11:09 45.25357 -133.30331 34238 ft 501 kts 222°
2026-04-25 11:10 45.20154 -133.36886 34247 ft 500 kts 222°
2026-04-25 11:10 45.14958 -133.43412 34246 ft 499 kts 222°
2026-04-25 11:11 45.09802 -133.49877 34247 ft 498 kts 221°
2026-04-25 11:11 45.04612 -133.56368 34248 ft 497 kts 221°
2026-04-25 11:12 44.99432 -133.62827 34247 ft 497 kts 221°
2026-04-25 11:12 44.94248 -133.69273 34250 ft 496 kts 221°
2026-04-25 11:13 44.89100 -133.75662 34259 ft 496 kts 221°
2026-04-25 11:13 44.83922 -133.82073 34252 ft 495 kts 221°
2026-04-25 11:14 44.78744 -133.88466 34255 ft 495 kts 221°
2026-04-25 11:14 44.73572 -133.94838 34260 ft 494 kts 221°
2026-04-25 11:15 44.68515 -134.01053 34261 ft 494 kts 221°
2026-04-25 11:15 44.63334 -134.07401 34261 ft 494 kts 221°
2026-04-25 11:16 44.55555 -134.16906 34264 ft 495 kts 221°
2026-04-25 11:16 44.50360 -134.23235 34261 ft 494 kts 221°
2026-04-25 11:17 44.45201 -134.29504 34261 ft 494 kts 220°
2026-04-25 11:17 44.40008 -134.35800 34266 ft 494 kts 220°
2026-04-25 11:18 44.34818 -134.42078 34267 ft 493 kts 220°
2026-04-25 11:18 44.29631 -134.48330 34268 ft 492 kts 220°
2026-04-25 11:19 44.24447 -134.54568 34271 ft 492 kts 220°
2026-04-25 11:19 44.19309 -134.60744 34268 ft 491 kts 220°
2026-04-25 11:20 44.14138 -134.66938 34271 ft 490 kts 220°
2026-04-25 11:20 44.08965 -134.73114 34277 ft 490 kts 220°
2026-04-25 11:21 44.03788 -134.79283 34269 ft 490 kts 220°
2026-04-25 11:21 43.98657 -134.85385 34274 ft 490 kts 220°
2026-04-25 11:22 43.94341 -134.90506 34275 ft 491 kts 220°
2026-04-25 11:22 43.88269 -134.97696 34276 ft 491 kts 220°
2026-04-25 11:23 43.83129 -135.03767 34275 ft 491 kts 220°
2026-04-25 11:23 43.77958 -135.09855 34282 ft 491 kts 219°
2026-04-25 11:24 43.72756 -135.15971 34281 ft 491 kts 219°
2026-04-25 11:24 43.67553 -135.22071 34281 ft 490 kts 219°
2026-04-25 11:25 43.62347 -135.28157 34284 ft 490 kts 218°
2026-04-25 11:25 43.57154 -135.34219 34286 ft 489 kts 219°
2026-04-25 11:26 43.51994 -135.40223 34284 ft 488 kts 218°
2026-04-25 11:26 43.46803 -135.46250 34282 ft 488 kts 218°
2026-04-25 11:27 43.41614 -135.52267 34291 ft 487 kts 218°
2026-04-25 11:27 43.37305 -135.57256 34291 ft 487 kts 218°
2026-04-25 11:28 43.31267 -135.64216 34279 ft 487 kts 218°
2026-04-25 11:28 43.26074 -135.70186 34288 ft 487 kts 217°
2026-04-25 11:29 43.20880 -135.76156 34284 ft 487 kts 218°
2026-04-25 11:29 43.15693 -135.82107 34295 ft 487 kts 217°
2026-04-25 11:30 43.10489 -135.88049 34295 ft 487 kts 217°
2026-04-25 11:30 43.05326 -135.93939 34295 ft 487 kts 218°
2026-04-25 11:31 43.00125 -135.99876 34293 ft 488 kts 219°
2026-04-25 11:31 42.95321 -136.06240 34307 ft 488 kts 224°
2026-04-25 11:32 42.90539 -136.12828 34294 ft 489 kts 223°
2026-04-25 11:32 42.85776 -136.19362 34297 ft 489 kts 223°
2026-04-25 11:33 42.80967 -136.25902 34301 ft 488 kts 223°
2026-04-25 11:33 42.76148 -136.32420 34293 ft 488 kts 222°
2026-04-25 11:34 42.71322 -136.38922 34296 ft 489 kts 223°
2026-04-25 11:34 42.66486 -136.45423 34294 ft 489 kts 222°
2026-04-25 11:35 42.61685 -136.51880 34299 ft 489 kts 222°
2026-04-25 11:35 42.56848 -136.58370 34298 ft 489 kts 223°
2026-04-25 11:36 42.52009 -136.64848 34302 ft 489 kts 222°
2026-04-25 11:36 42.47158 -136.71317 34305 ft 489 kts 223°
2026-04-25 11:37 42.42343 -136.77725 34299 ft 489 kts 222°
2026-04-25 11:37 42.37494 -136.84164 34298 ft 489 kts 223°
2026-04-25 11:38 42.32639 -136.90597 34298 ft 489 kts 222°
2026-04-25 11:38 42.27785 -136.97019 34301 ft 488 kts 223°
2026-04-25 11:39 42.23018 -137.03301 34306 ft 488 kts 223°
2026-04-25 11:39 42.18158 -137.09698 34309 ft 488 kts 222°
2026-04-25 11:40 42.13298 -137.16085 34306 ft 488 kts 223°
2026-04-25 11:40 42.08437 -137.22456 34304 ft 488 kts 222°
2026-04-25 11:41 42.03572 -137.28822 34304 ft 487 kts 223°
2026-04-25 11:41 41.98753 -137.35106 34308 ft 487 kts 222°
2026-04-25 11:42 41.93891 -137.41431 34309 ft 486 kts 222°
2026-04-25 11:42 41.89025 -137.47732 34315 ft 486 kts 223°
2026-04-25 11:43 41.84163 -137.54049 34307 ft 487 kts 222°
2026-04-25 11:43 41.79322 -137.60321 34313 ft 487 kts 223°
2026-04-25 11:44 41.74431 -137.66632 34307 ft 489 kts 224°
2026-04-25 11:44 41.69509 -137.72959 34313 ft 492 kts 224°
2026-04-25 11:45 41.64566 -137.79305 34313 ft 493 kts 224°
2026-04-25 11:45 41.59625 -137.85631 34309 ft 498 kts 224°
2026-04-25 11:46 41.54596 -137.92064 34320 ft 504 kts 225°
2026-04-25 11:46 41.49508 -137.98552 34312 ft 506 kts 225°
2026-04-25 11:47 41.44499 -138.04929 34309 ft 503 kts 225°
2026-04-25 11:47 41.39486 -138.11297 34310 ft 500 kts 225°
2026-04-25 11:48 41.34456 -138.17669 34305 ft 499 kts 225°
2026-04-25 11:48 41.29429 -138.24025 34320 ft 499 kts 225°
2026-04-25 11:49 41.24388 -138.30384 34323 ft 500 kts 225°
2026-04-25 11:49 41.19363 -138.36708 34311 ft 502 kts 225°
2026-04-25 11:50 41.14291 -138.43078 34322 ft 503 kts 225°
2026-04-25 11:50 41.09200 -138.49456 34322 ft 504 kts 225°
2026-04-25 11:51 41.04135 -138.55797 34325 ft 505 kts 225°
2026-04-25 11:51 40.99025 -138.62165 34318 ft 506 kts 225°
2026-04-25 11:52 40.93898 -138.68542 34318 ft 506 kts 225°
2026-04-25 11:52 40.88761 -138.74920 34318 ft 506 kts 225°
2026-04-25 11:53 40.83667 -138.81231 34321 ft 506 kts 225°
2026-04-25 11:53 40.78531 -138.87582 34323 ft 505 kts 225°
2026-04-25 11:54 40.73405 -138.93905 34318 ft 504 kts 225°
2026-04-25 11:55 40.65799 -139.03260 34320 ft 502 kts 224°
2026-04-25 11:55 40.60730 -139.09480 34322 ft 500 kts 225°
2026-04-25 11:56 40.55653 -139.15698 34317 ft 497 kts 225°
2026-04-25 11:56 40.50600 -139.21871 34323 ft 495 kts 224°
2026-04-25 11:57 40.45567 -139.28002 34320 ft 492 kts 225°
2026-04-25 11:57 40.40588 -139.34056 34321 ft 490 kts 225°
2026-04-25 11:58 40.35588 -139.40123 34335 ft 489 kts 224°
2026-04-25 11:58 40.30604 -139.46164 34334 ft 488 kts 225°
2026-04-25 11:59 40.25617 -139.52187 34322 ft 488 kts 224°
2026-04-25 11:59 40.20658 -139.58171 34339 ft 488 kts 224°
2026-04-25 12:00 40.13148 -139.67205 34319 ft 489 kts 225°
2026-04-25 12:01 40.05624 -139.76226 34338 ft 490 kts 224°
2026-04-25 12:01 40.00635 -139.82189 34332 ft 489 kts 224°
2026-04-25 12:02 39.93118 -139.91163 34331 ft 489 kts 224°
2026-04-25 12:02 39.88100 -139.97132 34332 ft 488 kts 224°
2026-04-25 12:03 39.83180 -140.02973 34335 ft 488 kts 224°
2026-04-25 12:03 39.78165 -140.08915 34331 ft 488 kts 224°
2026-04-25 12:04 39.73145 -140.14851 34329 ft 488 kts 224°
2026-04-25 12:04 39.68121 -140.20779 34340 ft 488 kts 224°
2026-04-25 12:05 39.63093 -140.26701 34339 ft 488 kts 224°
2026-04-25 12:05 39.58091 -140.32580 34340 ft 488 kts 224°
2026-04-25 12:06 39.53051 -140.38490 34330 ft 489 kts 225°
2026-04-25 12:06 39.48005 -140.44396 34341 ft 489 kts 225°
2026-04-25 12:07 39.42947 -140.50305 34337 ft 490 kts 224°
2026-04-25 12:07 39.37917 -140.56168 34329 ft 491 kts 225°
2026-04-25 12:08 39.32842 -140.62073 34340 ft 491 kts 225°
2026-04-25 12:08 39.27751 -140.67985 34341 ft 492 kts 225°
2026-04-25 12:09 39.22652 -140.73890 34337 ft 493 kts 226°
2026-04-25 12:09 39.17573 -140.79765 34343 ft 494 kts 226°
2026-04-25 12:10 39.12448 -140.85679 34330 ft 495 kts 226°
2026-04-25 12:10 39.07306 -140.91602 34340 ft 496 kts 226°
2026-04-25 12:11 39.02163 -140.97515 34342 ft 496 kts 226°
2026-04-25 12:11 38.97116 -141.03294 34340 ft 496 kts 226°
2026-04-25 12:12 38.92782 -141.08221 34342 ft 496 kts 226°
2026-04-25 12:12 38.86774 -141.15038 34344 ft 496 kts 226°
2026-04-25 12:13 38.81605 -141.20894 34334 ft 495 kts 226°
2026-04-25 12:13 38.76487 -141.26684 34341 ft 494 kts 226°
2026-04-25 12:14 38.71343 -141.32494 34334 ft 492 kts 226°
2026-04-25 12:14 38.66210 -141.38278 34347 ft 491 kts 226°
2026-04-25 12:15 38.61084 -141.44044 34346 ft 491 kts 226°
2026-04-25 12:15 38.55992 -141.49761 34350 ft 490 kts 226°
2026-04-25 12:16 38.50870 -141.55500 34340 ft 490 kts 226°
2026-04-25 12:16 38.45745 -141.61231 34330 ft 490 kts 226°
2026-04-25 12:17 38.40623 -141.66945 34342 ft 489 kts 226°
2026-04-25 12:17 38.35506 -141.72645 34346 ft 488 kts 226°
2026-04-25 12:18 38.30422 -141.78296 34346 ft 488 kts 226°
2026-04-25 12:18 38.25306 -141.83972 34345 ft 488 kts 226°
2026-04-25 12:19 38.17621 -141.92477 34337 ft 488 kts 226°
2026-04-25 12:20 38.12497 -141.98134 34340 ft 488 kts 226°
2026-04-25 12:20 38.07491 -142.03651 34345 ft 488 kts 226°
2026-04-25 12:21 38.02366 -142.09288 34339 ft 487 kts 226°
2026-04-25 12:21 37.97259 -142.14894 34346 ft 487 kts 226°
2026-04-25 12:22 37.92140 -142.20502 34337 ft 487 kts 226°
2026-04-25 12:22 37.87046 -142.26073 34347 ft 487 kts 226°
2026-04-25 12:23 37.81916 -142.31673 34356 ft 487 kts 226°
2026-04-25 12:23 37.76786 -142.37261 34350 ft 487 kts 226°
2026-04-25 12:24 37.71655 -142.42840 34351 ft 487 kts 226°
2026-04-25 12:24 37.66521 -142.48412 34330 ft 487 kts 226°
2026-04-25 12:25 37.61417 -142.53941 34348 ft 487 kts 226°
2026-04-25 12:25 37.56274 -142.59501 34357 ft 487 kts 226°
2026-04-25 12:26 37.51132 -142.65051 34332 ft 487 kts 226°
2026-04-25 12:26 37.46022 -142.70554 34345 ft 487 kts 226°
2026-04-25 12:27 37.40876 -142.76087 34351 ft 487 kts 226°
2026-04-25 12:27 37.35726 -142.81614 34335 ft 487 kts 226°
2026-04-25 12:28 37.30569 -142.87137 34360 ft 487 kts 226°
2026-04-25 12:28 37.25411 -142.92652 34330 ft 487 kts 226°
2026-04-25 12:29 37.20283 -142.98124 34341 ft 487 kts 226°
2026-04-25 12:29 37.15187 -143.03551 34349 ft 487 kts 226°
2026-04-25 12:30 37.10013 -143.09052 34339 ft 488 kts 226°
2026-04-25 12:30 37.04840 -143.14543 34343 ft 488 kts 226°
2026-04-25 12:31 36.99703 -143.19983 34354 ft 488 kts 226°
2026-04-25 12:31 36.94518 -143.25466 34345 ft 488 kts 226°
2026-04-25 12:32 36.89325 -143.30947 34351 ft 489 kts 226°
2026-04-25 12:32 36.84123 -143.36427 34347 ft 490 kts 226°
2026-04-25 12:33 36.78908 -143.41909 34355 ft 490 kts 226°
2026-04-25 12:33 36.73723 -143.47351 34353 ft 491 kts 226°
2026-04-25 12:34 36.68495 -143.52828 34337 ft 491 kts 226°
2026-04-25 12:34 36.63266 -143.58296 34351 ft 491 kts 226°
2026-04-25 12:35 36.58032 -143.63758 34356 ft 491 kts 226°
2026-04-25 12:35 36.52836 -143.69172 34339 ft 490 kts 226°
2026-04-25 12:36 36.47609 -143.74607 34337 ft 490 kts 226°
2026-04-25 12:36 36.42374 -143.80042 34350 ft 491 kts 226°
2026-04-25 12:37 36.37130 -143.85477 34344 ft 492 kts 226°
2026-04-25 12:37 36.31910 -143.90876 34351 ft 492 kts 226°
2026-04-25 12:38 36.26645 -143.96312 34354 ft 493 kts 226°
2026-04-25 12:38 36.21452 -144.01663 34337 ft 493 kts 226°
2026-04-25 12:39 36.16171 -144.07097 34351 ft 494 kts 226°
2026-04-25 12:39 36.10913 -144.12496 34351 ft 495 kts 226°
2026-04-25 12:40 36.05611 -144.17930 34347 ft 495 kts 226°
2026-04-25 12:40 36.00303 -144.23360 34350 ft 495 kts 226°
2026-04-25 12:41 35.95012 -144.28765 34329 ft 496 kts 227°
2026-04-25 12:41 35.89728 -144.34152 34347 ft 496 kts 227°
2026-04-25 12:42 35.84401 -144.39573 34345 ft 497 kts 227°
2026-04-25 12:42 35.79062 -144.44996 34333 ft 497 kts 227°
2026-04-25 12:43 35.73723 -144.50409 34323 ft 497 kts 227°
2026-04-25 12:43 35.65737 -144.58491 34344 ft 498 kts 227°
2026-04-25 12:44 35.60378 -144.63900 34339 ft 499 kts 227°
2026-04-25 12:45 35.52325 -144.72010 34352 ft 499 kts 227°
2026-04-25 12:45 35.44288 -144.80084 34337 ft 500 kts 227°
2026-04-25 12:46 35.38908 -144.85477 34346 ft 500 kts 227°
2026-04-25 12:46 35.33521 -144.90866 34326 ft 500 kts 227°
2026-04-25 12:47 35.28135 -144.96246 34339 ft 500 kts 227°
2026-04-25 12:47 35.22849 -145.01516 34334 ft 500 kts 226°
2026-04-25 12:48 35.17461 -145.06879 34328 ft 499 kts 226°
2026-04-25 12:48 35.12077 -145.12229 34340 ft 499 kts 226°
2026-04-25 12:49 35.06695 -145.17569 34347 ft 498 kts 226°
2026-04-25 12:49 35.01353 -145.22867 34321 ft 497 kts 227°
2026-04-25 12:50 34.96498 -145.28686 34359 ft 487 kts 235°
2026-04-25 12:50 34.91965 -145.34809 34332 ft 486 kts 235°
2026-04-25 12:51 34.87437 -145.40912 34327 ft 485 kts 235°
2026-04-25 12:51 34.82918 -145.46942 34338 ft 485 kts 234°
2026-04-25 12:52 34.78358 -145.52993 34333 ft 485 kts 234°
2026-04-25 12:52 34.73795 -145.59029 34344 ft 484 kts 234°
2026-04-25 12:53 34.69266 -145.65013 34335 ft 484 kts 234°
2026-04-25 12:53 34.64700 -145.71039 34349 ft 485 kts 234°
2026-04-25 12:54 34.60127 -145.77064 34343 ft 486 kts 234°
2026-04-25 12:54 34.55544 -145.83090 34324 ft 486 kts 234°
2026-04-25 12:55 34.51721 -145.88110 34336 ft 488 kts 234°
2026-04-25 12:55 34.46357 -145.95139 34336 ft 489 kts 233°
2026-04-25 12:56 34.41786 -146.01119 34323 ft 491 kts 233°
2026-04-25 12:56 34.37134 -146.07194 34335 ft 493 kts 233°
2026-04-25 12:57 34.32492 -146.13244 34336 ft 495 kts 233°
2026-04-25 12:57 34.27802 -146.19347 34335 ft 496 kts 233°
2026-04-25 12:58 34.23100 -146.25452 34329 ft 496 kts 233°
2026-04-25 12:58 34.18393 -146.31554 34326 ft 496 kts 233°
2026-04-25 12:59 34.13688 -146.37643 34332 ft 496 kts 233°
2026-04-25 12:59 34.09016 -146.43679 34326 ft 495 kts 233°
2026-04-25 13:00 34.05874 -146.47731 34327 ft 494 kts 233°
2026-04-25 13:00 33.99656 -146.55739 34334 ft 492 kts 233°
2026-04-25 13:01 33.95009 -146.61712 34327 ft 491 kts 232°
2026-04-25 13:01 33.90335 -146.67711 34330 ft 491 kts 232°
2026-04-25 13:02 33.85662 -146.73697 34331 ft 491 kts 232°
2026-04-25 13:02 33.80987 -146.79676 34332 ft 491 kts 232°
2026-04-25 13:03 33.76344 -146.85603 34317 ft 490 kts 232°
2026-04-25 13:03 33.71677 -146.91550 34324 ft 489 kts 232°
2026-04-25 13:04 33.67006 -146.97493 34337 ft 489 kts 232°
2026-04-25 13:04 33.62403 -147.03339 34332 ft 488 kts 232°
2026-04-25 13:05 33.57783 -147.09196 34324 ft 485 kts 232°
2026-04-25 13:05 33.53151 -147.15059 34313 ft 484 kts 232°
2026-04-25 13:06 33.48527 -147.20903 34332 ft 483 kts 232°
2026-04-25 13:06 33.43904 -147.26737 34322 ft 482 kts 232°
2026-04-25 13:07 33.39322 -147.32508 34326 ft 481 kts 232°
2026-04-25 13:07 33.34712 -147.38307 34311 ft 481 kts 232°
2026-04-25 13:08 33.30098 -147.44099 34308 ft 481 kts 232°
2026-04-25 13:08 33.25483 -147.49884 34320 ft 481 kts 232°
2026-04-25 13:09 33.20861 -147.55670 34322 ft 481 kts 232°
2026-04-25 13:09 33.16262 -147.61414 34321 ft 482 kts 232°
2026-04-25 13:10 33.11629 -147.67193 34310 ft 482 kts 232°
2026-04-25 13:10 33.06993 -147.72966 34319 ft 482 kts 231°
2026-04-25 13:11 33.02348 -147.78741 34324 ft 482 kts 231°
2026-04-25 13:11 32.97736 -147.84466 34305 ft 483 kts 231°
2026-04-25 13:12 32.93086 -147.90228 34330 ft 482 kts 231°
2026-04-25 13:12 32.89974 -147.94078 34309 ft 482 kts 231°
2026-04-25 13:13 32.83847 -148.01649 34312 ft 482 kts 231°
2026-04-25 13:13 32.79196 -148.07384 34310 ft 481 kts 231°
2026-04-25 13:14 32.74584 -148.13063 34314 ft 480 kts 231°
2026-04-25 13:14 32.69941 -148.18770 34317 ft 480 kts 231°
2026-04-25 13:15 32.65307 -148.24458 34312 ft 479 kts 231°
2026-04-25 13:15 32.60706 -148.30097 34304 ft 478 kts 231°
2026-04-25 13:16 32.56077 -148.35760 34314 ft 478 kts 231°
2026-04-25 13:16 32.51442 -148.41422 34313 ft 479 kts 231°
2026-04-25 13:17 32.49116 -148.44262 34424 ft 481 kts 231°
2026-04-25 13:17 32.46787 -148.47102 34686 ft 480 kts 231°
2026-04-25 13:17 32.44462 -148.49932 34979 ft 478 kts 231°
2026-04-25 13:17 32.42146 -148.52748 35299 ft 476 kts 231°
2026-04-25 13:18 32.39872 -148.55513 35579 ft 475 kts 231°
2026-04-25 13:18 32.37571 -148.58310 35829 ft 474 kts 231°
2026-04-25 13:18 32.35271 -148.61103 36075 ft 474 kts 231°
2026-04-25 13:18 32.32972 -148.63894 36335 ft 473 kts 232°
2026-04-25 13:19 32.30676 -148.66678 36599 ft 472 kts 232°
2026-04-25 13:19 32.28384 -148.69454 36854 ft 471 kts 232°
2026-04-25 13:19 32.26095 -148.72225 37089 ft 471 kts 232°
2026-04-25 13:19 32.25354 -148.73122 37170 ft 471 kts 232°
2026-04-25 13:20 32.21555 -148.77715 37568 ft 470 kts 232°
2026-04-25 13:20 32.19274 -148.80471 37798 ft 469 kts 232°
2026-04-25 13:20 32.16995 -148.83221 38028 ft 468 kts 232°
2026-04-25 13:20 32.14719 -148.85967 38256 ft 468 kts 232°
2026-04-25 13:21 32.12441 -148.88712 38458 ft 467 kts 232°
2026-04-25 13:21 32.10163 -148.91457 38506 ft 470 kts 232°
2026-04-25 13:21 32.07873 -148.94215 38639 ft 471 kts 232°
2026-04-25 13:21 32.05616 -148.96929 38861 ft 470 kts 232°
2026-04-25 13:22 32.03324 -148.99681 39068 ft 469 kts 232°
2026-04-25 13:22 32.01095 -149.02356 39229 ft 468 kts 232°
2026-04-25 13:22 31.98821 -149.05083 39375 ft 468 kts 232°
2026-04-25 13:23 31.94255 -149.10555 39642 ft 468 kts 231°
2026-04-25 13:23 31.89670 -149.16043 39801 ft 471 kts 231°
2026-04-25 13:23 31.87406 -149.18749 39951 ft 470 kts 231°
2026-04-25 13:24 31.85112 -149.21487 40107 ft 469 kts 231°
2026-04-25 13:24 31.80525 -149.26959 40259 ft 470 kts 231°
2026-04-25 13:25 31.75925 -149.32440 40270 ft 472 kts 231°
2026-04-25 13:25 31.71312 -149.37927 40298 ft 473 kts 231°
2026-04-25 13:26 31.66710 -149.43392 40303 ft 474 kts 231°
2026-04-25 13:26 31.62073 -149.48889 40298 ft 474 kts 231°
2026-04-25 13:27 31.57432 -149.54384 40285 ft 473 kts 231°
2026-04-25 13:27 31.52801 -149.59857 40290 ft 472 kts 231°
2026-04-25 13:28 31.48214 -149.65271 40296 ft 471 kts 230°
2026-04-25 13:28 31.43604 -149.70705 40295 ft 470 kts 230°
2026-04-25 13:29 31.39003 -149.76121 40275 ft 469 kts 230°
2026-04-25 13:29 31.34412 -149.81516 40285 ft 468 kts 230°
2026-04-25 13:30 31.27558 -149.89558 40286 ft 467 kts 230°
2026-04-25 13:31 31.20668 -149.97624 40279 ft 468 kts 230°
2026-04-25 13:31 31.16119 -150.02939 40292 ft 468 kts 230°
2026-04-25 13:32 31.11540 -150.08282 40292 ft 469 kts 230°
2026-04-25 13:32 31.06921 -150.13664 40289 ft 470 kts 230°
2026-04-25 13:33 31.02293 -150.19047 40268 ft 470 kts 230°
2026-04-25 13:33 30.97662 -150.24426 40284 ft 470 kts 230°
2026-04-25 13:34 30.93058 -150.29767 40288 ft 471 kts 230°
2026-04-25 13:34 30.88412 -150.35148 40286 ft 471 kts 230°
2026-04-25 13:35 30.83765 -150.40523 40266 ft 471 kts 230°
2026-04-25 13:35 30.79113 -150.45896 40277 ft 471 kts 230°
2026-04-25 13:36 30.74493 -150.51225 40279 ft 471 kts 230°
2026-04-25 13:36 30.69834 -150.56590 40281 ft 472 kts 230°
2026-04-25 13:37 30.65172 -150.61951 40281 ft 472 kts 230°
2026-04-25 13:37 30.60503 -150.67312 40275 ft 472 kts 230°
2026-04-25 13:38 30.55864 -150.72632 40279 ft 472 kts 230°
2026-04-25 13:38 30.51187 -150.77988 40275 ft 473 kts 230°
2026-04-25 13:39 30.46505 -150.83343 40281 ft 473 kts 230°
2026-04-25 13:39 30.41814 -150.88700 40277 ft 474 kts 230°
2026-04-25 13:40 30.37151 -150.94019 40273 ft 474 kts 230°
2026-04-25 13:40 30.32454 -150.99372 40275 ft 474 kts 230°
2026-04-25 13:41 30.27795 -151.04668 40269 ft 474 kts 229°
2026-04-25 13:41 30.22974 -151.09882 40264 ft 478 kts 223°
2026-04-25 13:42 30.17432 -151.14138 40273 ft 486 kts 212°
2026-04-25 13:42 30.11341 -151.17590 40276 ft 488 kts 210°
2026-04-25 13:43 30.05203 -151.20955 40271 ft 489 kts 211°
2026-04-25 13:43 30.00102 -151.23773 40263 ft 489 kts 211°
2026-04-25 13:44 29.93005 -151.27731 40272 ft 489 kts 211°
2026-04-25 13:44 29.86884 -151.31153 40263 ft 489 kts 211°
2026-04-25 13:45 29.80762 -151.34570 40247 ft 489 kts 211°
2026-04-25 13:45 29.75672 -151.37403 40268 ft 489 kts 211°
2026-04-25 13:46 29.68550 -151.41365 40273 ft 490 kts 211°
2026-04-25 13:46 29.62414 -151.44775 40272 ft 490 kts 211°
2026-04-25 13:47 29.57312 -151.47607 40243 ft 490 kts 211°
2026-04-25 13:47 29.51176 -151.51008 40251 ft 490 kts 211°
2026-04-25 13:48 29.45040 -151.54403 40250 ft 490 kts 211°
2026-04-25 13:48 29.37911 -151.58344 40261 ft 489 kts 211°
2026-04-25 13:49 29.32812 -151.61158 40245 ft 489 kts 210°
2026-04-25 13:49 29.26682 -151.64536 40249 ft 488 kts 210°
2026-04-25 13:50 29.20561 -151.67906 40251 ft 488 kts 210°
2026-04-25 13:50 29.14440 -151.71272 40237 ft 488 kts 210°
2026-04-25 13:51 29.08367 -151.74606 40243 ft 487 kts 210°
2026-04-25 13:51 29.02263 -151.77953 40250 ft 486 kts 210°
2026-04-25 13:52 28.96175 -151.81287 40243 ft 486 kts 210°
2026-04-25 13:52 28.90076 -151.84624 40231 ft 486 kts 210°
2026-04-25 13:53 28.83985 -151.87950 40242 ft 485 kts 210°
2026-04-25 13:53 28.77938 -151.91248 40234 ft 485 kts 210°
2026-04-25 13:54 28.71849 -151.94565 40232 ft 485 kts 210°
2026-04-25 13:54 28.65752 -151.97882 40230 ft 486 kts 210°
2026-04-25 13:55 28.59766 -152.01133 40233 ft 486 kts 210°
2026-04-25 13:55 28.53662 -152.04446 40231 ft 486 kts 210°
2026-04-25 13:56 28.47549 -152.07759 40228 ft 487 kts 210°
2026-04-25 13:56 28.41434 -152.11069 40216 ft 487 kts 210°
2026-04-25 13:57 28.35314 -152.14378 40220 ft 487 kts 210°
2026-04-25 13:57 28.29229 -152.17662 40233 ft 488 kts 210°
2026-04-25 13:58 28.23097 -152.20968 40224 ft 488 kts 210°
2026-04-25 13:58 28.16966 -152.24270 40207 ft 488 kts 210°
2026-04-25 13:59 28.10828 -152.27570 40209 ft 488 kts 210°
2026-04-25 13:59 28.04728 -152.30846 40218 ft 488 kts 210°
2026-04-25 14:00 27.98590 -152.34139 40208 ft 489 kts 210°
2026-04-25 14:00 27.92445 -152.37431 40208 ft 489 kts 210°
2026-04-25 14:01 27.86301 -152.40718 40215 ft 489 kts 210°
2026-04-25 14:01 27.80195 -152.43980 40209 ft 489 kts 209°
2026-04-25 14:02 27.74042 -152.47265 40185 ft 489 kts 209°
2026-04-25 14:02 27.67894 -152.50543 40196 ft 489 kts 209°
2026-04-25 14:03 27.61749 -152.53815 40199 ft 489 kts 209°
2026-04-25 14:03 27.55591 -152.57090 40197 ft 489 kts 209°
2026-04-25 14:04 27.49470 -152.60342 40185 ft 490 kts 209°
2026-04-25 14:04 27.43303 -152.63613 40193 ft 490 kts 209°
2026-04-25 14:05 27.37134 -152.66881 40193 ft 490 kts 209°
2026-04-25 14:05 27.30997 -152.70128 40190 ft 491 kts 209°
2026-04-25 14:06 27.24817 -152.73394 40182 ft 491 kts 208°
2026-04-25 14:06 27.18634 -152.76657 40185 ft 491 kts 208°
2026-04-25 14:07 27.12452 -152.79915 40185 ft 491 kts 208°
2026-04-25 14:07 27.06311 -152.83149 40181 ft 491 kts 208°
2026-04-25 14:08 27.00125 -152.86402 40169 ft 491 kts 208°
2026-04-25 14:08 26.93941 -152.89648 40186 ft 491 kts 208°
2026-04-25 14:09 26.87748 -152.92897 40183 ft 492 kts 208°
2026-04-25 14:09 26.81590 -152.96124 40180 ft 492 kts 208°
2026-04-25 14:10 26.75390 -152.99370 40175 ft 492 kts 208°
2026-04-25 14:10 26.69262 -153.02572 40175 ft 492 kts 208°
2026-04-25 14:11 26.63063 -153.05807 40168 ft 492 kts 208°
2026-04-25 14:11 26.56863 -153.09042 40169 ft 492 kts 208°
2026-04-25 14:12 26.50704 -153.12250 40158 ft 492 kts 208°
2026-04-25 14:12 26.44499 -153.15477 40166 ft 492 kts 208°
2026-04-25 14:13 26.38295 -153.18702 40162 ft 492 kts 208°
2026-04-25 14:13 26.32088 -153.21925 40158 ft 493 kts 208°
2026-04-25 14:14 26.25912 -153.25127 40156 ft 493 kts 207°
2026-04-25 14:14 26.19688 -153.28349 40161 ft 493 kts 208°
2026-04-25 14:15 26.13460 -153.31568 40153 ft 494 kts 208°
2026-04-25 14:15 26.07231 -153.34785 40155 ft 494 kts 208°
2026-04-25 14:16 26.01036 -153.37981 40148 ft 494 kts 207°
2026-04-25 14:16 25.94812 -153.41189 40154 ft 494 kts 208°
2026-04-25 14:17 25.88577 -153.44397 40144 ft 494 kts 207°
2026-04-25 14:17 25.82381 -153.47581 40143 ft 494 kts 208°
2026-04-25 14:18 25.76139 -153.50785 40143 ft 495 kts 207°
2026-04-25 14:18 25.69889 -153.53990 40143 ft 495 kts 208°
2026-04-25 14:19 25.63638 -153.57194 40145 ft 495 kts 207°
2026-04-25 14:19 25.57425 -153.60374 40145 ft 495 kts 207°
2026-04-25 14:20 25.51165 -153.63574 40132 ft 495 kts 207°
2026-04-25 14:20 25.44910 -153.66767 40140 ft 495 kts 208°
2026-04-25 14:21 25.38660 -153.69954 40130 ft 494 kts 207°
2026-04-25 14:21 25.32458 -153.73113 40135 ft 494 kts 207°
2026-04-25 14:22 25.26216 -153.76290 40126 ft 494 kts 207°
2026-04-25 14:22 25.19973 -153.79462 40130 ft 494 kts 208°
2026-04-25 14:23 25.13725 -153.82632 40133 ft 494 kts 207°
2026-04-25 14:23 25.07475 -153.85802 40128 ft 494 kts 208°
2026-04-25 14:24 25.01265 -153.88947 40118 ft 494 kts 207°
2026-04-25 14:24 24.95028 -153.92103 40123 ft 493 kts 207°
2026-04-25 14:25 24.88797 -153.95252 40120 ft 492 kts 207°
2026-04-25 14:25 24.82613 -153.98374 40123 ft 492 kts 207°
2026-04-25 14:26 24.76477 -154.01468 40113 ft 491 kts 206°
2026-04-25 14:26 24.70275 -154.04591 40112 ft 490 kts 207°
2026-04-25 14:27 24.64080 -154.07707 40105 ft 489 kts 207°
2026-04-25 14:27 24.57934 -154.10797 40113 ft 489 kts 207°
2026-04-25 14:28 24.51746 -154.13907 40107 ft 489 kts 207°
2026-04-25 14:28 24.45562 -154.17008 40121 ft 489 kts 207°
2026-04-25 14:29 24.39379 -154.20106 40103 ft 488 kts 207°
2026-04-25 14:29 24.33242 -154.23264 40098 ft 485 kts 212°
2026-04-25 14:30 24.28048 -154.27789 40097 ft 479 kts 229°
2026-04-25 14:30 24.22271 -154.36630 40110 ft 475 kts 238°
2026-04-25 14:31 24.18624 -154.42677 40114 ft 476 kts 238°
2026-04-25 14:31 24.14927 -154.48707 40107 ft 477 kts 238°
2026-04-25 14:32 24.11229 -154.54673 40104 ft 477 kts 238°
2026-04-25 14:32 24.07488 -154.60687 40105 ft 478 kts 238°
2026-04-25 14:33 24.03749 -154.66693 40110 ft 478 kts 237°
2026-04-25 14:33 24.00038 -154.72652 40106 ft 477 kts 238°
2026-04-25 14:34 23.96315 -154.78622 40102 ft 476 kts 238°
2026-04-25 14:34 23.92583 -154.84601 40099 ft 475 kts 238°
2026-04-25 14:35 23.88857 -154.90563 40098 ft 475 kts 237°
2026-04-25 14:35 23.85133 -154.96515 40098 ft 475 kts 237°
2026-04-25 14:36 23.81477 -155.02350 40098 ft 475 kts 237°
2026-04-25 14:36 23.77744 -155.08302 40103 ft 474 kts 238°
2026-04-25 14:37 23.74012 -155.14245 40096 ft 474 kts 237°
2026-04-25 14:37 23.70305 -155.20143 40099 ft 474 kts 237°
2026-04-25 14:38 23.66571 -155.26074 40098 ft 474 kts 237°
2026-04-25 14:38 23.62834 -155.32006 40094 ft 475 kts 237°
2026-04-25 14:39 23.59091 -155.37942 40099 ft 475 kts 237°
2026-04-25 14:39 23.55301 -155.43841 40091 ft 475 kts 232°
2026-04-25 14:40 23.52961 -155.46326 40090 ft 479 kts 220°
2026-04-25 14:40 23.50157 -155.48311 40101 ft 483 kts 210°
2026-04-25 14:40 23.47047 -155.49716 40089 ft 486 kts 199°
2026-04-25 14:40 23.43770 -155.50652 40102 ft 488 kts 197°
2026-04-25 14:41 23.37159 -155.52364 40096 ft 489 kts 196°
2026-04-25 14:41 23.30581 -155.54106 40094 ft 490 kts 197°
2026-04-25 14:42 23.25040 -155.55631 40091 ft 491 kts 197°
2026-04-25 14:42 23.17353 -155.57776 40090 ft 491 kts 197°
2026-04-25 14:43 23.10798 -155.59603 39710 ft 479 kts 197°
2026-04-25 14:43 23.07566 -155.60502 38859 ft 482 kts 197°
2026-04-25 14:43 23.04293 -155.61413 37580 ft 490 kts 196°
2026-04-25 14:44 23.01004 -155.62328 36221 ft 500 kts 196°
2026-04-25 14:44 22.97612 -155.63271 34926 ft 508 kts 196°
2026-04-25 14:44 22.94162 -155.64229 33653 ft 514 kts 195°
2026-04-25 14:44 22.90675 -155.65194 32316 ft 519 kts 195°
2026-04-25 14:45 22.87178 -155.66160 31346 ft 516 kts 195°
2026-04-25 14:45 22.83725 -155.67114 30584 ft 509 kts 195°
2026-04-25 14:45 22.80304 -155.68061 29711 ft 505 kts 195°
2026-04-25 14:45 22.76917 -155.68998 28801 ft 500 kts 195°
2026-04-25 14:46 22.73616 -155.69912 28064 ft 494 kts 195°
2026-04-25 14:46 22.70322 -155.70823 27489 ft 484 kts 194°
2026-04-25 14:46 22.67071 -155.71717 26672 ft 480 kts 194°
2026-04-25 14:46 22.63851 -155.72603 26037 ft 474 kts 194°
2026-04-25 14:47 22.60679 -155.73475 25480 ft 466 kts 194°
2026-04-25 14:47 22.58607 -155.74045 25019 ft 463 kts 194°
2026-04-25 14:47 22.54453 -155.75187 24121 ft 458 kts 194°
2026-04-25 14:47 22.51373 -155.76035 23456 ft 454 kts 193°
2026-04-25 14:48 22.48369 -155.76860 22790 ft 449 kts 194°
2026-04-25 14:48 22.45362 -155.77685 22128 ft 444 kts 193°
2026-04-25 14:48 22.42377 -155.78503 21435 ft 441 kts 194°
2026-04-25 14:48 22.39412 -155.79316 20757 ft 439 kts 194°
2026-04-25 14:49 22.36467 -155.80123 20089 ft 436 kts 194°
2026-04-25 14:49 22.33518 -155.80931 19327 ft 437 kts 194°
2026-04-25 14:49 22.30592 -155.81733 18823 ft 431 kts 194°
2026-04-25 14:49 22.27689 -155.82528 18256 ft 428 kts 194°
2026-04-25 14:50 22.24854 -155.83304 17627 ft 426 kts 194°
2026-04-25 14:50 22.21995 -155.84086 17091 ft 421 kts 194°
2026-04-25 14:50 22.19167 -155.84860 16578 ft 417 kts 194°
2026-04-25 14:50 22.16378 -155.85623 16157 ft 411 kts 194°
2026-04-25 14:51 22.13644 -155.86371 16091 ft 401 kts 194°
2026-04-25 14:51 22.10922 -155.87114 16093 ft 409 kts 194°
2026-04-25 14:51 22.08153 -155.87870 16089 ft 412 kts 194°
2026-04-25 14:51 22.05367 -155.88631 16080 ft 415 kts 194°
2026-04-25 14:52 22.02603 -155.89385 16083 ft 413 kts 194°
2026-04-25 14:52 21.99825 -155.90142 16058 ft 412 kts 194°
2026-04-25 14:52 21.97073 -155.90893 15948 ft 403 kts 194°
2026-04-25 14:52 21.95290 -155.91379 15833 ft 396 kts 194°
2026-04-25 14:53 21.91848 -155.92317 15634 ft 364 kts 194°
2026-04-25 14:53 21.89459 -155.92968 15314 ft 346 kts 194°
2026-04-25 14:53 21.87183 -155.93588 14978 ft 331 kts 194°
2026-04-25 14:53 21.84990 -155.94185 14351 ft 328 kts 193°
2026-04-25 14:54 21.82794 -155.94783 13787 ft 323 kts 194°
2026-04-25 14:54 21.80634 -155.95370 13154 ft 319 kts 193°
2026-04-25 14:54 21.78486 -155.95954 12462 ft 318 kts 193°
2026-04-25 14:54 21.76359 -155.96531 11913 ft 312 kts 194°
2026-04-25 14:55 21.74259 -155.97101 11256 ft 311 kts 194°
2026-04-25 14:55 21.72178 -155.97666 10724 ft 305 kts 194°
2026-04-25 14:55 21.70130 -155.98222 10145 ft 302 kts 194°
2026-04-25 14:55 21.68129 -155.98766 9620 ft 297 kts 194°
2026-04-25 14:56 21.66155 -155.99302 9192 ft 288 kts 193°
2026-04-25 14:56 21.64234 -155.99824 9019 ft 283 kts 193°
2026-04-25 14:56 21.62344 -156.00336 9017 ft 292 kts 193°
2026-04-25 14:56 21.60392 -156.00865 8998 ft 284 kts 193°
2026-04-25 14:57 21.58507 -156.01377 8982 ft 274 kts 193°
2026-04-25 14:57 21.56688 -156.01870 8989 ft 270 kts 194°
2026-04-25 14:57 21.54870 -156.02363 8990 ft 268 kts 193°
2026-04-25 14:57 21.53072 -156.02851 8990 ft 265 kts 193°
2026-04-25 14:58 21.51310 -156.03328 8995 ft 264 kts 193°
2026-04-25 14:58 21.49539 -156.03807 8997 ft 262 kts 193°
2026-04-25 14:58 21.47769 -156.04286 8999 ft 264 kts 193°
2026-04-25 14:58 21.45988 -156.04768 9006 ft 265 kts 193°
2026-04-25 14:59 21.44221 -156.05249 9008 ft 264 kts 194°
2026-04-25 14:59 21.42445 -156.05741 8992 ft 263 kts 194°
2026-04-25 14:59 21.40669 -156.06226 8999 ft 264 kts 194°
2026-04-25 14:59 21.38887 -156.06709 9008 ft 264 kts 194°
2026-04-25 15:00 21.37130 -156.07184 8998 ft 265 kts 194°
2026-04-25 15:00 21.35338 -156.07667 9007 ft 265 kts 193°
2026-04-25 15:00 21.33547 -156.08149 9014 ft 265 kts 194°
2026-04-25 15:00 21.31754 -156.08632 9005 ft 265 kts 193°
2026-04-25 15:01 21.29963 -156.09113 9008 ft 265 kts 194°
2026-04-25 15:01 21.28178 -156.09593 9007 ft 264 kts 194°
2026-04-25 15:01 21.26399 -156.10073 8998 ft 263 kts 194°
2026-04-25 15:01 21.24644 -156.10545 8989 ft 263 kts 194°
2026-04-25 15:02 21.22871 -156.11021 8998 ft 262 kts 194°
2026-04-25 15:02 21.21104 -156.11498 9003 ft 262 kts 194°
2026-04-25 15:02 21.19335 -156.11977 8994 ft 263 kts 194°
2026-04-25 15:02 21.17562 -156.12478 8918 ft 262 kts 200°
2026-04-25 15:03 21.15961 -156.13382 8577 ft 263 kts 215°
2026-04-25 15:03 21.14484 -156.14541 8268 ft 263 kts 217°
2026-04-25 15:03 21.13026 -156.15730 7941 ft 264 kts 217°
2026-04-25 15:03 21.11553 -156.16915 7613 ft 266 kts 216°
2026-04-25 15:04 21.10047 -156.18108 7260 ft 269 kts 215°
2026-04-25 15:04 21.08570 -156.19261 7090 ft 265 kts 215°
2026-04-25 15:04 21.07094 -156.20405 7013 ft 260 kts 214°
2026-04-25 15:04 21.05626 -156.21536 7011 ft 260 kts 214°
2026-04-25 15:05 21.04157 -156.22665 7012 ft 260 kts 214°
2026-04-25 15:05 21.02698 -156.23789 7005 ft 258 kts 214°
2026-04-25 15:05 21.01238 -156.24905 7006 ft 259 kts 215°
2026-04-25 15:06 20.98310 -156.27125 6880 ft 259 kts 214°
2026-04-25 15:06 20.96835 -156.28241 6341 ft 261 kts 213°
2026-04-25 15:06 20.95349 -156.29365 5929 ft 259 kts 214°
2026-04-25 15:06 20.93872 -156.30483 5596 ft 262 kts 214°
2026-04-25 15:07 20.92379 -156.31611 5347 ft 264 kts 214°
2026-04-25 15:07 20.90882 -156.32745 5136 ft 261 kts 213°
2026-04-25 15:07 20.89431 -156.33844 5071 ft 251 kts 214°
2026-04-25 15:07 20.88013 -156.34908 5006 ft 249 kts 214°
2026-04-25 15:08 20.86575 -156.35970 5005 ft 252 kts 210°
2026-04-25 15:08 20.85008 -156.36740 5016 ft 252 kts 197°
2026-04-25 15:08 20.83336 -156.37320 5007 ft 254 kts 195°
2026-04-25 15:08 20.81654 -156.37873 5005 ft 252 kts 194°
2026-04-25 15:09 20.79980 -156.38427 5004 ft 251 kts 195°
2026-04-25 15:09 20.78324 -156.38975 4995 ft 250 kts 194°
2026-04-25 15:09 20.75010 -156.40068 4990 ft 249 kts 195°
2026-04-25 15:10 20.73342 -156.40602 5015 ft 252 kts 194°
2026-04-25 15:10 20.71681 -156.41123 5014 ft 252 kts 194°
2026-04-25 15:10 20.68353 -156.42169 5001 ft 246 kts 194°
2026-04-25 15:11 20.66711 -156.42687 4980 ft 246 kts 194°
2026-04-25 15:11 20.65073 -156.43207 4994 ft 245 kts 194°
2026-04-25 15:11 20.63433 -156.43724 4990 ft 246 kts 195°
2026-04-25 15:12 20.60110 -156.44091 5013 ft 246 kts 169°
2026-04-25 15:12 20.58409 -156.43835 4990 ft 246 kts 170°
2026-04-25 15:12 20.56746 -156.43583 4979 ft 244 kts 169°
2026-04-25 15:12 20.56177 -156.43498 4975 ft 243 kts 169°
2026-04-25 15:13 20.53410 -156.43084 4977 ft 240 kts 169°
2026-04-25 15:13 20.50098 -156.42907 4979 ft 247 kts 196°
2026-04-25 15:13 20.48633 -156.43880 4989 ft 254 kts 228°
2026-04-25 15:14 20.47811 -156.45523 4980 ft 253 kts 259°
2026-04-25 15:14 20.47748 -156.47338 4977 ft 247 kts 276°
2026-04-25 15:14 20.47921 -156.49161 4981 ft 248 kts 278°
2026-04-25 15:14 20.48127 -156.50996 4988 ft 250 kts 279°
2026-04-25 15:15 20.48518 -156.52770 4971 ft 245 kts 300°
2026-04-25 15:15 20.49610 -156.54100 4898 ft 238 kts 332°
2026-04-25 15:15 20.51115 -156.54737 4590 ft 232 kts 348°
2026-04-25 15:15 20.52680 -156.55173 4276 ft 231 kts 349°
2026-04-25 15:16 20.54220 -156.55594 4188 ft 227 kts 349°
2026-04-25 15:16 20.55736 -156.55999 4108 ft 231 kts 349°
2026-04-25 15:16 20.58884 -156.56829 4020 ft 234 kts 349°
2026-04-25 15:17 20.62022 -156.57590 3981 ft 231 kts 351°
2026-04-25 15:17 20.63600 -156.57995 3989 ft 235 kts 349°
2026-04-25 15:17 20.65188 -156.58398 3989 ft 233 kts 353°
2026-04-25 15:18 20.66777 -156.58341 3986 ft 227 kts 14°
2026-04-25 15:18 20.69857 -156.57601 3989 ft 228 kts 24°
2026-04-25 15:18 20.71259 -156.56797 3797 ft 230 kts 34°
2026-04-25 15:19 20.72572 -156.55841 3571 ft 226 kts 37°
2026-04-25 15:19 20.73416 -156.55204 3421 ft 221 kts 37°
2026-04-25 15:19 20.75030 -156.53997 3122 ft 202 kts 37°
2026-04-25 15:19 20.76120 -156.53183 3058 ft 179 kts 37°
2026-04-25 15:20 20.77075 -156.52470 2845 ft 155 kts 37°
2026-04-25 15:20 20.77881 -156.51871 2660 ft 130 kts 38°
2026-04-25 15:20 20.78571 -156.51355 2501 ft 117 kts 38°
2026-04-25 15:20 20.79254 -156.50843 2363 ft 122 kts 37°
2026-04-25 15:21 20.79953 -156.50320 2189 ft 125 kts 36°
2026-04-25 15:21 20.80666 -156.49792 2044 ft 123 kts 37°
2026-04-25 15:21 20.81352 -156.49279 1867 ft 116 kts 34°
2026-04-25 15:21 20.82021 -156.48779 1733 ft 122 kts 36°
2026-04-25 15:22 20.82756 -156.48229 1547 ft 128 kts 34°
2026-04-25 15:22 20.83453 -156.47709 1371 ft 122 kts 34°
2026-04-25 15:22 20.84160 -156.47183 1268 ft 130 kts 33°
2026-04-25 15:22 20.84855 -156.46663 1039 ft 115 kts 32°
2026-04-25 15:23 20.85520 -156.46182 892 ft 118 kts 33°
2026-04-25 15:23 20.86218 -156.45640 729 ft 130 kts 36°
2026-04-25 15:23 20.86969 -156.45086 632 ft 134 kts 32°
2026-04-25 15:23 20.87729 -156.44543 384 ft 128 kts 35°
2026-04-25 15:24 20.88470 -156.43966 217 ft 132 kts 36°
2026-04-25 15:24 20.89193 -156.43425 43 ft 119 kts 35°
2026-04-25 15:24 20.89781 -156.42990 34 ft 82 kts 34°
2026-04-25 15:24 20.90039 -156.42797 32 ft 52 kts 34°
2026-04-25 15:25 20.90320 -156.42594 33 ft 29 kts 34°
2026-04-25 15:25 20.90449 -156.42513 33 ft 8 kts
2026-04-25 15:25 20.90480 -156.42547 32 ft 5 kts 283°
2026-04-25 15:25 20.90474 -156.42583 33 ft 5 kts 254°
2026-04-25 15:26 20.90467 -156.42604 33 ft 2 kts 249°
2026-04-25 15:26 20.90448 -156.42641 33 ft 8 kts 232°
2026-04-25 15:26 20.90409 -156.42679 33 ft 8 kts 219°
2026-04-25 15:26 20.90363 -156.42716 33 ft 9 kts 216°
2026-04-25 15:27 20.90326 -156.42743 33 ft 4 kts 214°
2026-04-25 15:27 20.90307 -156.42757 33 ft 0 kts 214°
2026-04-25 15:27 20.90306 -156.42757 33 ft 1 kts 214°
2026-04-25 15:28 20.90284 -156.42774 33 ft 10 kts 214°
2026-04-25 15:28 20.90210 -156.42828 32 ft 13 kts 214°
2026-04-25 15:28 20.90135 -156.42884 32 ft 13 kts 215°
2026-04-25 15:28 20.90078 -156.42927 32 ft 10 kts 215°
2026-04-25 15:29 20.90024 -156.42968 33 ft 10 kts 215°
2026-04-25 15:29 20.89969 -156.43008 34 ft 10 kts 215°
2026-04-25 15:29 20.89915 -156.43049 34 ft 9 kts 214°
2026-04-25 15:29 20.89862 -156.43087 34 ft 9 kts 214°
2026-04-25 15:30 20.89814 -156.43123 34 ft 8 kts 215°
2026-04-25 15:30 20.89769 -156.43156 35 ft 8 kts 214°
2026-04-25 15:30 20.89725 -156.43189 35 ft 8 kts 214°
2026-04-25 15:30 20.89682 -156.43220 35 ft 7 kts 214°
2026-04-25 15:31 20.89646 -156.43248 35 ft 6 kts 216°
2026-04-25 15:31 20.89621 -156.43279 35 ft 5 kts 249°
2026-04-25 15:31 20.89609 -156.43312 35 ft 4 kts 249°
2026-04-25 15:31 20.89602 -156.43333 35 ft 3 kts 252°
2026-04-25 15:32 20.89596 -156.43354 35 ft 3 kts 252°
2026-04-25 15:32 20.89597 -156.43377 35 ft 3 kts 292°
2026-04-25 15:32 20.89609 -156.43399 34 ft 4 kts 302°
2026-04-25 15:33 20.89622 -156.43420 36 ft 0 kts 304°